Wetterdaten: Samstag, 22.10.2016
Datum Zeit Temp. Aussen Temp. o. S. +5cm Feuchte Auss BlattFeu 1 Luftdruck Regen Sonnenschein Regendauer Solar Windben Empfang
22.10.2016 00:00 7,9 C 7,8 C 6,7 C 97 % 15 lf 1012,9 hPa 0,0 l/m 0 min 0 min 0 W/m 8,4 km/h (2 Bft) 96,00 %
22.10.2016 00:02 7,9 C 7,8 C 6,7 C 97 % 15 lf 1012,9 hPa 0,0 l/m 0 min 0 min 0 W/m 10,5 km/h (2 Bft) 100,00 %
22.10.2016 00:05 7,9 C 7,8 C 6,7 C 97 % 15 lf 1013,0 hPa 0,0 l/m 0 min 0 min 0 W/m 8,4 km/h (2 Bft) 98,63 %
22.10.2016 00:06 7,9 C 7,8 C 6,7 C 97 % 15 lf 1013,0 hPa 0,0 l/m 0 min 0 min 0 W/m 4,2 km/h (1 Bft) 100,00 %
22.10.2016 00:08 7,9 C 7,8 C 6,7 C 97 % 15 lf 1012,9 hPa 0,0 l/m 0 min 0 min 0 W/m 8,4 km/h (2 Bft) 97,87 %
22.10.2016 00:10 7,9 C 7,8 C 6,7 C 97 % 15 lf 1012,9 hPa 0,0 l/m 0 min 0 min 0 W/m 6,3 km/h (2 Bft) 100,00 %
22.10.2016 00:12 7,9 C 7,8 C 6,7 C 97 % 15 lf 1012,9 hPa 0,0 l/m 0 min 0 min 0 W/m 6,3 km/h (2 Bft) 97,83 %
22.10.2016 00:14 7,9 C 7,8 C 6,7 C 97 % 15 lf 1012,9 hPa 0,0 l/m 0 min 0 min 0 W/m 8,4 km/h (2 Bft) 95,74 %
22.10.2016 00:16 7,9 C 7,8 C 6,7 C 97 % 15 lf 1012,9 hPa 0,0 l/m 0 min 0 min 0 W/m 10,5 km/h (2 Bft) 96,23 %
22.10.2016 00:18 7,9 C 7,8 C 6,7 C 97 % 15 lf 1012,9 hPa 0,0 l/m 0 min 0 min 0 W/m 8,4 km/h (2 Bft) 100,00 %
22.10.2016 00:20 7,9 C 7,8 C 6,7 C 97 % 15 lf 1012,9 hPa 0,0 l/m 0 min 0 min 0 W/m 12,6 km/h (3 Bft) 97,87 %
22.10.2016 00:22 7,9 C 7,8 C 6,7 C 97 % 15 lf 1012,9 hPa 0,0 l/m 0 min 0 min 0 W/m 8,4 km/h (2 Bft) 97,83 %
22.10.2016 00:24 7,9 C 7,8 C 6,7 C 97 % 15 lf 1012,9 hPa 0,0 l/m 0 min 0 min 0 W/m 12,6 km/h (3 Bft) 97,87 %
22.10.2016 00:26 7,9 C 7,8 C 6,7 C 97 % 15 lf 1012,8 hPa 0,0 l/m 0 min 0 min 0 W/m 8,4 km/h (2 Bft) 97,87 %
22.10.2016 00:28 7,9 C 7,8 C 6,7 C 97 % 15 lf 1012,9 hPa 0,0 l/m 0 min 0 min 0 W/m 6,3 km/h (2 Bft) 100,00 %
22.10.2016 00:30 7,9 C 7,8 C 6,7 C 97 % 15 lf 1012,8 hPa 0,0 l/m 0 min 0 min 0 W/m 8,4 km/h (2 Bft) 100,00 %
22.10.2016 00:32 7,9 C 7,8 C 6,7 C 97 % 15 lf 1012,9 hPa 0,0 l/m 0 min 0 min 0 W/m 6,3 km/h (2 Bft) 100,00 %
22.10.2016 00:34 7,9 C 7,8 C 6,7 C 97 % 15 lf 1012,9 hPa 0,0 l/m 0 min 0 min 0 W/m 8,4 km/h (2 Bft) 97,83 %
22.10.2016 00:36 8,0 C 7,8 C 6,7 C 98 % 15 lf 1012,8 hPa 0,0 l/m 0 min 0 min 0 W/m 6,3 km/h (2 Bft) 100,00 %
22.10.2016 00:38 8,0 C 7,8 C 6,7 C 98 % 15 lf 1012,8 hPa 0,0 l/m 0 min 0 min 0 W/m 4,2 km/h (1 Bft) 100,00 %
22.10.2016 00:40 8,0 C 7,8 C 6,7 C 98 % 15 lf 1012,9 hPa 0,0 l/m 0 min 0 min 0 W/m 10,5 km/h (2 Bft) 100,00 %
22.10.2016 00:42 8,0 C 7,8 C 6,7 C 98 % 15 lf 1012,9 hPa 0,0 l/m 0 min 0 min 0 W/m 8,4 km/h (2 Bft) 100,00 %
22.10.2016 00:44 8,0 C 7,8 C 6,7 C 98 % 15 lf 1012,9 hPa 0,0 l/m 0 min 0 min 0 W/m 8,4 km/h (2 Bft) 100,00 %
22.10.2016 00:46 8,0 C 7,8 C 6,7 C 98 % 15 lf 1012,9 hPa 0,0 l/m 0 min 0 min 0 W/m 10,5 km/h (2 Bft) 100,00 %
22.10.2016 00:48 8,0 C 7,8 C 6,7 C 98 % 15 lf 1012,8 hPa 0,0 l/m 0 min 0 min 0 W/m 6,3 km/h (2 Bft) 100,00 %
22.10.2016 00:50 8,0 C 7,8 C 6,7 C 98 % 15 lf 1012,8 hPa 0,0 l/m 0 min 0 min 0 W/m 8,4 km/h (2 Bft) 100,00 %
22.10.2016 00:52 8,0 C 7,8 C 6,7 C 98 % 15 lf 1012,8 hPa 0,0 l/m 0 min 0 min 0 W/m 8,4 km/h (2 Bft) 100,00 %
22.10.2016 00:54 8,0 C 7,8 C 6,7 C 98 % 15 lf 1012,8 hPa 0,0 l/m 0 min 0 min 0 W/m 10,5 km/h (2 Bft) 100,00 %
22.10.2016 00:56 8,0 C 7,8 C 6,7 C 98 % 15 lf 1012,8 hPa 0,0 l/m 0 min 0 min 0 W/m 6,3 km/h (2 Bft) 100,00 %
22.10.2016 00:58 8,1 C 7,8 C 6,7 C 98 % 15 lf 1012,8 hPa 0,0 l/m 0 min 0 min 0 W/m 14,6 km/h (3 Bft) 97,87 %
22.10.2016 01:00 8,1 C 7,8 C 6,7 C 98 % 15 lf 1012,8 hPa 0,0 l/m 0 min 0 min 0 W/m 14,6 km/h (3 Bft) 97,96 %
22.10.2016 01:02 8,1 C 7,8 C 6,7 C 98 % 15 lf 1012,8 hPa 0,0 l/m 0 min 0 min 0 W/m 10,5 km/h (2 Bft) 96,00 %
22.10.2016 01:04 8,1 C 7,8 C 7,2 C 98 % 15 lf 1012,8 hPa 0,0 l/m 0 min 0 min 0 W/m 6,3 km/h (2 Bft) 97,87 %
22.10.2016 01:06 8,1 C 7,8 C 7,2 C 98 % 15 lf 1012,7 hPa 0,0 l/m 0 min 0 min 0 W/m 10,5 km/h (2 Bft) 100,00 %
22.10.2016 01:08 8,1 C 7,8 C 7,2 C 98 % 15 lf 1012,8 hPa 0,0 l/m 0 min 0 min 0 W/m 8,4 km/h (2 Bft) 97,83 %
22.10.2016 01:10 8,1 C 7,8 C 7,2 C 98 % 15 lf 1012,8 hPa 0,0 l/m 0 min 0 min 0 W/m 6,3 km/h (2 Bft) 95,74 %
22.10.2016 01:12 8,1 C 7,8 C 7,2 C 98 % 15 lf 1012,7 hPa 0,0 l/m 0 min 0 min 0 W/m 8,4 km/h (2 Bft) 91,49 %
22.10.2016 01:14 8,1 C 7,8 C 6,7 C 98 % 15 lf 1012,7 hPa 0,0 l/m 0 min 0 min 0 W/m 4,2 km/h (1 Bft) 91,49 %
22.10.2016 01:16 8,1 C 7,8 C 6,7 C 98 % 15 lf 1012,7 hPa 0,0 l/m 0 min 0 min 0 W/m 6,3 km/h (2 Bft) 97,87 %
22.10.2016 01:18 8,1 C 7,8 C 6,7 C 98 % 15 lf 1012,7 hPa 0,0 l/m 0 min 0 min 0 W/m 10,5 km/h (2 Bft) 97,87 %
22.10.2016 01:20 8,1 C 7,8 C 6,7 C 98 % 15 lf 1012,7 hPa 0,0 l/m 0 min 0 min 0 W/m 6,3 km/h (2 Bft) 95,65 %
22.10.2016 01:22 8,1 C 7,8 C 6,7 C 98 % 15 lf 1012,6 hPa 0,0 l/m 0 min 0 min 0 W/m 8,4 km/h (2 Bft) 95,74 %
22.10.2016 01:24 8,1 C 7,8 C 6,7 C 98 % 15 lf 1012,6 hPa 0,0 l/m 0 min 0 min 0 W/m 6,3 km/h (2 Bft) 95,74 %
22.10.2016 01:26 8,1 C 7,8 C 6,7 C 98 % 15 lf 1012,5 hPa 0,0 l/m 0 min 0 min 0 W/m 2,1 km/h (1 Bft) 95,74 %
22.10.2016 01:28 8,1 C 7,8 C 6,7 C 98 % 15 lf 1012,5 hPa 0,0 l/m 0 min 0 min 0 W/m 6,3 km/h (2 Bft) 97,87 %
22.10.2016 01:30 8,1 C 7,8 C 6,7 C 98 % 15 lf 1012,5 hPa 0,0 l/m 0 min 0 min 0 W/m 8,4 km/h (2 Bft) 93,62 %
22.10.2016 01:32 8,1 C 7,8 C 7,2 C 98 % 15 lf 1012,5 hPa 0,0 l/m 0 min 0 min 0 W/m 6,3 km/h (2 Bft) 93,48 %
22.10.2016 01:34 8,1 C 7,8 C 7,2 C 98 % 15 lf 1012,6 hPa 0,0 l/m 0 min 0 min 0 W/m 6,3 km/h (2 Bft) 95,74 %
22.10.2016 01:36 8,1 C 7,8 C 7,2 C 98 % 15 lf 1012,4 hPa 0,0 l/m 0 min 0 min 0 W/m 8,4 km/h (2 Bft) 100,00 %
22.10.2016 01:38 8,1 C 7,8 C 7,2 C 98 % 15 lf 1012,5 hPa 0,0 l/m 0 min 0 min 0 W/m 4,2 km/h (1 Bft) 93,15 %
22.10.2016 01:40 8,1 C 7,8 C 7,2 C 98 % 15 lf 1012,4 hPa 0,0 l/m 0 min 0 min 0 W/m 6,3 km/h (2 Bft) 97,87 %
22.10.2016 01:42 8,1 C 7,8 C 7,2 C 98 % 15 lf 1012,4 hPa 0,0 l/m 0 min 0 min 0 W/m 8,4 km/h (2 Bft) 97,87 %
22.10.2016 01:44 8,1 C 7,8 C 7,2 C 98 % 15 lf 1012,5 hPa 0,0 l/m 0 min 0 min 0 W/m 6,3 km/h (2 Bft) 95,74 %
22.10.2016 01:46 8,1 C 7,8 C 7,2 C 98 % 15 lf 1012,4 hPa 0,0 l/m 0 min 0 min 0 W/m 6,3 km/h (2 Bft) 95,65 %
22.10.2016 01:48 8,1 C 7,8 C 7,2 C 98 % 15 lf 1012,4 hPa 0,0 l/m 0 min 0 min 0 W/m 4,2 km/h (1 Bft) 97,87 %
22.10.2016 01:50 8,1 C 7,8 C 7,2 C 98 % 15 lf 1012,4 hPa 0,0 l/m 0 min 0 min 0 W/m 6,3 km/h (2 Bft) 95,74 %
22.10.2016 01:52 8,1 C 7,8 C 7,2 C 98 % 15 lf 1012,4 hPa 0,0 l/m 0 min 0 min 0 W/m 8,4 km/h (2 Bft) 95,74 %
22.10.2016 01:54 8,1 C 8,3 C 7,2 C 98 % 15 lf 1012,4 hPa 0,0 l/m 0 min 0 min 0 W/m 8,4 km/h (2 Bft) 97,87 %
22.10.2016 01:56 8,1 C 8,3 C 7,2 C 98 % 15 lf 1012,4 hPa 0,0 l/m 0 min 0 min 0 W/m 6,3 km/h (2 Bft) 91,49 %
22.10.2016 01:58 8,1 C 8,3 C 7,2 C 98 % 15 lf 1012,4 hPa 0,0 l/m 0 min 0 min 0 W/m 8,4 km/h (2 Bft) 93,48 %
22.10.2016 02:00 8,1 C 8,3 C 7,2 C 98 % 15 lf 1012,4 hPa 0,0 l/m 0 min 0 min 0 W/m 8,4 km/h (2 Bft) 96,00 %
22.10.2016 02:02 8,1 C 8,3 C 7,2 C 98 % 15 lf 1012,4 hPa 0,0 l/m 0 min 0 min 0 W/m 6,3 km/h (2 Bft) 95,74 %
22.10.2016 02:04 8,1 C 8,3 C 7,2 C 98 % 15 lf 1012,4 hPa 0,0 l/m 0 min 0 min 0 W/m 6,3 km/h (2 Bft) 93,62 %
22.10.2016 02:06 8,2 C 7,8 C 7,2 C 98 % 15 lf 1012,4 hPa 0,0 l/m 0 min 0 min 0 W/m 6,3 km/h (2 Bft) 93,62 %
22.10.2016 02:08 8,1 C 8,3 C 7,2 C 98 % 15 lf 1012,4 hPa 0,0 l/m 0 min 0 min 0 W/m 4,2 km/h (1 Bft) 93,48 %
22.10.2016 02:10 8,2 C 8,3 C 7,2 C 98 % 15 lf 1012,4 hPa 0,0 l/m 0 min 0 min 0 W/m 6,3 km/h (2 Bft) 95,74 %
22.10.2016 02:12 8,2 C 8,3 C 7,2 C 98 % 15 lf 1012,3 hPa 0,0 l/m 0 min 0 min 0 W/m 8,4 km/h (2 Bft) 93,62 %
22.10.2016 02:14 8,2 C 8,3 C 7,2 C 98 % 15 lf 1012,4 hPa 0,0 l/m 0 min 0 min 0 W/m 8,4 km/h (2 Bft) 93,62 %
22.10.2016 02:16 8,2 C 8,3 C 7,2 C 98 % 15 lf 1012,4 hPa 0,0 l/m 0 min 0 min 0 W/m 6,3 km/h (2 Bft) 97,56 %
22.10.2016 02:18 8,2 C 8,3 C 7,2 C 98 % 15 lf 1012,4 hPa 0,0 l/m 0 min 0 min 0 W/m 6,3 km/h (2 Bft) 95,74 %
22.10.2016 02:20 8,2 C 8,3 C 7,2 C 98 % 15 lf 1012,4 hPa 0,0 l/m 0 min 0 min 0 W/m 2,1 km/h (1 Bft) 96,15 %
22.10.2016 02:22 8,2 C 8,3 C 7,2 C 98 % 15 lf 1012,4 hPa 0,0 l/m 0 min 0 min 0 W/m 4,2 km/h (1 Bft) 97,87 %
22.10.2016 02:24 8,2 C 8,3 C 7,2 C 98 % 15 lf 1012,5 hPa 0,0 l/m 0 min 0 min 0 W/m 8,4 km/h (2 Bft) 95,74 %
22.10.2016 02:26 8,2 C 8,3 C 7,2 C 98 % 15 lf 1012,4 hPa 0,0 l/m 0 min 0 min 0 W/m 8,4 km/h (2 Bft) 93,62 %
22.10.2016 02:28 8,2 C 8,3 C 7,2 C 98 % 15 lf 1012,4 hPa 0,0 l/m 0 min 0 min 0 W/m 8,4 km/h (2 Bft) 97,87 %
22.10.2016 02:30 8,2 C 8,3 C 7,2 C 98 % 15 lf 1012,4 hPa 0,0 l/m 0 min 0 min 0 W/m 4,2 km/h (1 Bft) 97,87 %
22.10.2016 02:32 8,2 C 8,3 C 7,2 C 98 % 15 lf 1012,4 hPa 0,0 l/m 0 min 0 min 0 W/m 6,3 km/h (2 Bft) 97,56 %
22.10.2016 02:34 8,2 C 8,3 C 7,2 C 98 % 15 lf 1012,4 hPa 0,0 l/m 0 min 0 min 0 W/m 8,4 km/h (2 Bft) 93,48 %
22.10.2016 02:36 8,2 C 8,3 C 7,2 C 98 % 15 lf 1012,4 hPa 0,0 l/m 0 min 0 min 0 W/m 14,6 km/h (3 Bft) 98,11 %
22.10.2016 02:38 8,2 C 8,3 C 7,2 C 98 % 15 lf 1012,3 hPa 0,0 l/m 0 min 0 min 0 W/m 14,6 km/h (3 Bft) 97,87 %
22.10.2016 02:40 8,2 C 8,3 C 7,2 C 98 % 15 lf 1012,4 hPa 0,0 l/m 0 min 0 min 0 W/m 8,4 km/h (2 Bft) 100,00 %
22.10.2016 02:42 8,2 C 8,3 C 7,2 C 98 % 15 lf 1012,4 hPa 0,0 l/m 0 min 0 min 0 W/m 8,4 km/h (2 Bft) 97,87 %
22.10.2016 02:44 8,2 C 8,3 C 7,2 C 98 % 15 lf 1012,3 hPa 0,0 l/m 0 min 0 min 0 W/m 6,3 km/h (2 Bft) 95,65 %
22.10.2016 02:46 8,2 C 8,3 C 7,2 C 98 % 15 lf 1012,3 hPa 0,0 l/m 0 min 0 min 0 W/m 8,4 km/h (2 Bft) 95,12 %
22.10.2016 02:48 8,2 C 8,3 C 7,2 C 98 % 15 lf 1012,3 hPa 0,0 l/m 0 min 0 min 0 W/m 8,4 km/h (2 Bft) 93,62 %
22.10.2016 02:50 8,2 C 8,3 C 7,2 C 98 % 15 lf 1012,3 hPa 0,0 l/m 0 min 0 min 0 W/m 8,4 km/h (2 Bft) 97,87 %
22.10.2016 02:52 8,2 C 8,3 C 7,2 C 98 % 15 lf 1012,3 hPa 0,0 l/m 0 min 0 min 0 W/m 10,5 km/h (2 Bft) 95,74 %
22.10.2016 02:54 8,2 C 8,3 C 7,2 C 98 % 15 lf 1012,3 hPa 0,0 l/m 0 min 0 min 0 W/m 10,5 km/h (2 Bft) 94,00 %
22.10.2016 02:56 8,2 C 8,3 C 7,2 C 98 % 15 lf 1012,3 hPa 0,0 l/m 0 min 0 min 0 W/m 10,5 km/h (2 Bft) 89,13 %
22.10.2016 02:58 8,2 C 8,3 C 7,2 C 98 % 15 lf 1012,3 hPa 0,0 l/m 0 min 0 min 0 W/m 8,4 km/h (2 Bft) 97,87 %
22.10.2016 03:00 8,2 C 8,3 C 7,2 C 98 % 15 lf 1012,3 hPa 0,0 l/m 0 min 0 min 0 W/m 10,5 km/h (2 Bft) 94,00 %
22.10.2016 03:02 8,2 C 8,3 C 7,2 C 98 % 15 lf 1012,2 hPa 0,0 l/m 0 min 0 min 0 W/m 10,5 km/h (2 Bft) 94,00 %
22.10.2016 03:04 8,2 C 8,3 C 7,2 C 98 % 15 lf 1012,3 hPa 0,0 l/m 0 min 0 min 0 W/m 6,3 km/h (2 Bft) 95,74 %
22.10.2016 03:06 8,2 C 8,3 C 7,2 C 98 % 15 lf 1012,3 hPa 0,0 l/m 0 min 0 min 0 W/m 10,5 km/h (2 Bft) 95,65 %
22.10.2016 03:08 8,2 C 8,3 C 7,2 C 98 % 15 lf 1012,2 hPa 0,0 l/m 0 min 0 min 0 W/m 8,4 km/h (2 Bft) 95,74 %
22.10.2016 03:10 8,2 C 8,3 C 7,2 C 98 % 15 lf 1012,2 hPa 0,0 l/m 0 min 0 min 0 W/m 10,5 km/h (2 Bft) 93,62 %
22.10.2016 03:12 8,2 C 8,3 C 7,2 C 98 % 15 lf 1012,2 hPa 0,0 l/m 0 min 0 min 0 W/m 8,4 km/h (2 Bft) 95,12 %
22.10.2016 03:14 8,2 C 8,3 C 7,2 C 98 % 15 lf 1012,2 hPa 0,0 l/m 0 min 0 min 0 W/m 6,3 km/h (2 Bft) 95,74 %
22.10.2016 03:16 8,2 C 8,3 C 7,2 C 98 % 15 lf 1012,2 hPa 0,0 l/m 0 min 0 min 0 W/m 6,3 km/h (2 Bft) 96,23 %
22.10.2016 03:18 8,2 C 8,3 C 7,2 C 98 % 15 lf 1012,2 hPa 0,0 l/m 0 min 0 min 0 W/m 8,4 km/h (2 Bft) 93,48 %
22.10.2016 03:20 8,2 C 8,3 C 7,2 C 98 % 15 lf 1012,2 hPa 0,0 l/m 0 min 0 min 0 W/m 8,4 km/h (2 Bft) 93,62 %
22.10.2016 03:22 8,2 C 8,3 C 7,2 C 98 % 15 lf 1012,3 hPa 0,0 l/m 0 min 0 min 0 W/m 6,3 km/h (2 Bft) 93,62 %
22.10.2016 03:24 8,2 C 8,3 C 7,2 C 98 % 15 lf 1012,2 hPa 0,0 l/m 0 min 0 min 0 W/m 6,3 km/h (2 Bft) 95,74 %
22.10.2016 03:26 8,2 C 8,3 C 7,2 C 98 % 15 lf 1012,2 hPa 0,0 l/m 0 min 0 min 0 W/m 10,5 km/h (2 Bft) 91,49 %
22.10.2016 03:28 8,2 C 8,3 C 7,2 C 98 % 15 lf 1012,2 hPa 0,0 l/m 0 min 0 min 0 W/m 4,2 km/h (1 Bft) 95,74 %
22.10.2016 03:30 8,2 C 8,3 C 7,2 C 98 % 15 lf 1012,2 hPa 0,0 l/m 0 min 0 min 0 W/m 4,2 km/h (1 Bft) 97,56 %
22.10.2016 03:32 8,2 C 8,3 C 7,2 C 98 % 15 lf 1012,2 hPa 0,0 l/m 0 min 0 min 0 W/m 8,4 km/h (2 Bft) 96,15 %
22.10.2016 03:34 8,2 C 8,3 C 7,2 C 98 % 15 lf 1012,2 hPa 0,0 l/m 0 min 0 min 0 W/m 6,3 km/h (2 Bft) 95,74 %
22.10.2016 03:36 8,2 C 8,3 C 7,2 C 98 % 15 lf 1012,1 hPa 0,0 l/m 0 min 0 min 0 W/m 6,3 km/h (2 Bft) 97,87 %
22.10.2016 03:38 8,2 C 8,3 C 7,2 C 98 % 15 lf 1012,1 hPa 0,0 l/m 0 min 0 min 0 W/m 4,2 km/h (1 Bft) 97,87 %
22.10.2016 03:40 8,2 C 8,3 C 7,2 C 98 % 15 lf 1012,1 hPa 0,0 l/m 0 min 0 min 0 W/m 4,2 km/h (1 Bft) 97,83 %
22.10.2016 03:42 8,2 C 8,3 C 7,2 C 98 % 15 lf 1012,1 hPa 0,0 l/m 0 min 0 min 0 W/m 6,3 km/h (2 Bft) 91,49 %
22.10.2016 03:44 8,2 C 8,3 C 7,2 C 98 % 15 lf 1012,1 hPa 0,0 l/m 0 min 0 min 0 W/m 6,3 km/h (2 Bft) 97,87 %
22.10.2016 03:46 8,2 C 8,3 C 7,2 C 98 % 15 lf 1012,2 hPa 0,0 l/m 0 min 0 min 0 W/m 6,3 km/h (2 Bft) 95,74 %
22.10.2016 03:48 8,2 C 8,3 C 7,2 C 98 % 15 lf 1012,2 hPa 0,0 l/m 0 min 0 min 0 W/m 6,3 km/h (2 Bft) 97,87 %
22.10.2016 03:50 8,2 C 8,3 C 7,2 C 98 % 15 lf 1012,2 hPa 0,0 l/m 0 min 0 min 0 W/m 10,5 km/h (2 Bft) 97,87 %
22.10.2016 03:52 8,2 C 8,3 C 7,2 C 98 % 15 lf 1012,1 hPa 0,0 l/m 0 min 0 min 0 W/m 8,4 km/h (2 Bft) 97,83 %
22.10.2016 03:54 8,2 C 8,3 C 7,2 C 98 % 15 lf 1012,1 hPa 0,0 l/m 0 min 0 min 0 W/m 4,2 km/h (1 Bft) 95,74 %
22.10.2016 03:56 8,2 C 8,3 C 7,2 C 98 % 15 lf 1012,1 hPa 0,0 l/m 0 min 0 min 0 W/m 4,2 km/h (1 Bft) 100,00 %
22.10.2016 03:58 8,2 C 8,3 C 7,2 C 98 % 15 lf 1012,1 hPa 0,0 l/m 0 min 0 min 0 W/m 6,3 km/h (2 Bft) 95,74 %
22.10.2016 04:00 8,2 C 8,3 C 7,2 C 98 % 15 lf 1012,0 hPa 0,0 l/m 0 min 0 min 0 W/m 6,3 km/h (2 Bft) 95,45 %
22.10.2016 04:02 8,2 C 8,3 C 7,2 C 98 % 15 lf 1012,0 hPa 0,0 l/m 0 min 0 min 0 W/m 4,2 km/h (1 Bft) 100,00 %
22.10.2016 04:04 8,2 C 8,3 C 7,2 C 98 % 15 lf 1012,1 hPa 0,0 l/m 0 min 0 min 0 W/m 6,3 km/h (2 Bft) 97,87 %
22.10.2016 04:06 8,2 C 8,3 C 7,2 C 98 % 15 lf 1012,0 hPa 0,0 l/m 0 min 0 min 0 W/m 6,3 km/h (2 Bft) 100,00 %
22.10.2016 04:08 8,2 C 8,3 C 7,2 C 98 % 15 lf 1012,1 hPa 0,0 l/m 0 min 0 min 0 W/m 8,4 km/h (2 Bft) 95,74 %
22.10.2016 04:10 8,2 C 8,3 C 7,2 C 98 % 15 lf 1012,1 hPa 0,0 l/m 0 min 0 min 0 W/m 12,6 km/h (3 Bft) 93,62 %
22.10.2016 04:12 8,2 C 8,3 C 7,2 C 98 % 15 lf 1012,1 hPa 0,0 l/m 0 min 0 min 0 W/m 4,2 km/h (1 Bft) 97,87 %
22.10.2016 04:14 8,2 C 8,3 C 7,2 C 98 % 15 lf 1012,1 hPa 0,0 l/m 0 min 0 min 0 W/m 6,3 km/h (2 Bft) 97,87 %
22.10.2016 04:16 8,2 C 8,3 C 7,2 C 98 % 15 lf 1012,0 hPa 0,0 l/m 0 min 0 min 0 W/m 10,5 km/h (2 Bft) 97,83 %
22.10.2016 04:18 8,2 C 8,3 C 7,2 C 98 % 15 lf 1012,0 hPa 0,0 l/m 0 min 0 min 0 W/m 6,3 km/h (2 Bft) 97,87 %
22.10.2016 04:20 8,2 C 8,3 C 7,2 C 98 % 15 lf 1012,0 hPa 0,0 l/m 0 min 0 min 0 W/m 8,4 km/h (2 Bft) 97,87 %
22.10.2016 04:22 8,2 C 8,3 C 7,2 C 98 % 15 lf 1012,0 hPa 0,0 l/m 0 min 0 min 0 W/m 6,3 km/h (2 Bft) 95,74 %
22.10.2016 04:24 8,2 C 8,3 C 7,2 C 98 % 15 lf 1012,0 hPa 0,0 l/m 0 min 0 min 0 W/m 8,4 km/h (2 Bft) 97,87 %
22.10.2016 04:26 8,3 C 8,3 C 7,2 C 98 % 15 lf 1011,9 hPa 0,0 l/m 0 min 0 min 0 W/m 8,4 km/h (2 Bft) 97,87 %
22.10.2016 04:28 8,3 C 8,3 C 7,2 C 98 % 15 lf 1011,9 hPa 0,0 l/m 0 min 0 min 0 W/m 8,4 km/h (2 Bft) 97,87 %
22.10.2016 04:30 8,2 C 8,3 C 7,2 C 98 % 15 lf 1011,9 hPa 0,0 l/m 0 min 0 min 0 W/m 6,3 km/h (2 Bft) 95,65 %
22.10.2016 04:32 8,2 C 8,3 C 7,2 C 98 % 15 lf 1011,9 hPa 0,0 l/m 0 min 0 min 0 W/m 6,3 km/h (2 Bft) 95,74 %
22.10.2016 04:34 8,2 C 8,3 C 7,2 C 98 % 15 lf 1011,9 hPa 0,0 l/m 0 min 0 min 0 W/m 8,4 km/h (2 Bft) 95,74 %
22.10.2016 04:36 8,3 C 8,3 C 7,2 C 98 % 15 lf 1011,9 hPa 0,0 l/m 0 min 0 min 0 W/m 6,3 km/h (2 Bft) 95,74 %
22.10.2016 04:38 8,2 C 8,3 C 7,2 C 98 % 15 lf 1011,9 hPa 0,0 l/m 0 min 0 min 0 W/m 8,4 km/h (2 Bft) 97,87 %
22.10.2016 04:40 8,3 C 8,3 C 7,2 C 98 % 15 lf 1011,9 hPa 0,0 l/m 0 min 0 min 0 W/m 8,4 km/h (2 Bft) 95,65 %
22.10.2016 04:42 8,3 C 8,3 C 7,2 C 98 % 15 lf 1011,9 hPa 0,0 l/m 0 min 0 min 0 W/m 8,4 km/h (2 Bft) 93,62 %
22.10.2016 04:44 8,3 C 8,3 C 7,2 C 98 % 15 lf 1011,9 hPa 0,0 l/m 0 min 0 min 0 W/m 8,4 km/h (2 Bft) 97,87 %
22.10.2016 04:46 8,3 C 8,3 C 7,2 C 98 % 15 lf 1011,9 hPa 0,0 l/m 0 min 0 min 0 W/m 8,4 km/h (2 Bft) 97,87 %
22.10.2016 04:48 8,3 C 8,3 C 7,2 C 98 % 15 lf 1012,0 hPa 0,0 l/m 0 min 0 min 0 W/m 6,3 km/h (2 Bft) 97,87 %
22.10.2016 04:50 8,3 C 8,3 C 7,2 C 98 % 15 lf 1011,9 hPa 0,0 l/m 0 min 0 min 0 W/m 4,2 km/h (1 Bft) 95,74 %
22.10.2016 04:52 8,3 C 8,3 C 7,2 C 98 % 15 lf 1011,9 hPa 0,0 l/m 0 min 0 min 0 W/m 8,4 km/h (2 Bft) 95,65 %
22.10.2016 04:54 8,3 C 8,3 C 7,2 C 98 % 15 lf 1011,9 hPa 0,0 l/m 0 min 0 min 0 W/m 4,2 km/h (1 Bft) 95,74 %
22.10.2016 04:56 8,3 C 8,3 C 7,2 C 98 % 15 lf 1011,9 hPa 0,0 l/m 0 min 0 min 0 W/m 6,3 km/h (2 Bft) 95,74 %
22.10.2016 04:58 8,3 C 8,3 C 7,2 C 98 % 15 lf 1011,9 hPa 0,0 l/m 0 min 0 min 0 W/m 6,3 km/h (2 Bft) 95,74 %
22.10.2016 05:00 8,3 C 8,3 C 7,2 C 98 % 15 lf 1011,9 hPa 0,0 l/m 0 min 0 min 0 W/m 6,3 km/h (2 Bft) 94,00 %
22.10.2016 05:02 8,3 C 8,3 C 7,2 C 98 % 15 lf 1011,9 hPa 0,0 l/m 0 min 0 min 0 W/m 8,4 km/h (2 Bft) 97,96 %
22.10.2016 05:04 8,3 C 8,3 C 7,2 C 98 % 15 lf 1011,9 hPa 0,0 l/m 0 min 0 min 0 W/m 6,3 km/h (2 Bft) 95,74 %
22.10.2016 05:06 8,3 C 8,3 C 7,2 C 98 % 15 lf 1011,9 hPa 0,0 l/m 0 min 0 min 0 W/m 8,4 km/h (2 Bft) 95,12 %
22.10.2016 05:08 8,3 C 8,3 C 7,2 C 98 % 15 lf 1011,9 hPa 0,0 l/m 0 min 0 min 0 W/m 8,4 km/h (2 Bft) 91,49 %
22.10.2016 05:10 8,3 C 8,3 C 7,2 C 98 % 15 lf 1011,8 hPa 0,0 l/m 0 min 0 min 0 W/m 6,3 km/h (2 Bft) 93,62 %
22.10.2016 05:12 8,3 C 8,3 C 7,2 C 98 % 15 lf 1011,8 hPa 0,0 l/m 0 min 0 min 0 W/m 12,6 km/h (3 Bft) 95,74 %
22.10.2016 05:14 8,3 C 8,3 C 7,2 C 98 % 15 lf 1011,8 hPa 0,0 l/m 0 min 0 min 0 W/m 8,4 km/h (2 Bft) 91,49 %
22.10.2016 05:16 8,3 C 8,3 C 7,2 C 98 % 15 lf 1011,9 hPa 0,0 l/m 0 min 0 min 0 W/m 6,3 km/h (2 Bft) 98,08 %
22.10.2016 05:18 8,3 C 8,3 C 7,2 C 98 % 15 lf 1011,8 hPa 0,0 l/m 0 min 0 min 0 W/m 8,4 km/h (2 Bft) 92,68 %
22.10.2016 05:20 8,3 C 8,3 C 7,2 C 98 % 15 lf 1011,9 hPa 0,0 l/m 0 min 0 min 0 W/m 8,4 km/h (2 Bft) 93,62 %
22.10.2016 05:22 8,3 C 8,3 C 7,2 C 98 % 15 lf 1011,8 hPa 0,0 l/m 0 min 0 min 0 W/m 8,4 km/h (2 Bft) 95,74 %
22.10.2016 05:24 8,3 C 8,3 C 7,2 C 98 % 15 lf 1011,8 hPa 0,0 l/m 0 min 0 min 0 W/m 10,5 km/h (2 Bft) 95,74 %
22.10.2016 05:26 8,3 C 8,3 C 7,2 C 98 % 15 lf 1011,8 hPa 0,0 l/m 0 min 0 min 0 W/m 8,4 km/h (2 Bft) 97,83 %
22.10.2016 05:28 8,3 C 8,3 C 7,2 C 98 % 15 lf 1011,8 hPa 0,0 l/m 0 min 0 min 0 W/m 6,3 km/h (2 Bft) 97,87 %
22.10.2016 05:30 8,3 C 8,3 C 7,2 C 98 % 15 lf 1011,9 hPa 0,0 l/m 0 min 0 min 0 W/m 8,4 km/h (2 Bft) 97,87 %
22.10.2016 05:32 8,3 C 8,3 C 7,2 C 98 % 15 lf 1011,9 hPa 0,0 l/m 0 min 0 min 0 W/m 10,5 km/h (2 Bft) 96,23 %
22.10.2016 05:34 8,3 C 8,3 C 7,2 C 98 % 15 lf 1011,9 hPa 0,0 l/m 0 min 0 min 0 W/m 8,4 km/h (2 Bft) 95,74 %
22.10.2016 05:36 8,3 C 8,3 C 7,2 C 98 % 15 lf 1011,9 hPa 0,0 l/m 0 min 0 min 0 W/m 8,4 km/h (2 Bft) 93,48 %
22.10.2016 05:38 8,3 C 8,3 C 7,2 C 98 % 15 lf 1011,9 hPa 0,0 l/m 0 min 0 min 0 W/m 8,4 km/h (2 Bft) 97,87 %
22.10.2016 05:40 8,3 C 8,3 C 7,2 C 98 % 15 lf 1011,9 hPa 0,0 l/m 0 min 0 min 0 W/m 6,3 km/h (2 Bft) 95,74 %
22.10.2016 05:42 8,3 C 8,3 C 7,2 C 98 % 15 lf 1011,9 hPa 0,0 l/m 0 min 0 min 0 W/m 8,4 km/h (2 Bft) 95,74 %
22.10.2016 05:44 8,3 C 8,3 C 7,2 C 98 % 15 lf 1011,8 hPa 0,0 l/m 0 min 0 min 0 W/m 4,2 km/h (1 Bft) 97,87 %
22.10.2016 05:46 8,3 C 8,3 C 7,2 C 98 % 15 lf 1011,8 hPa 0,0 l/m 0 min 0 min 0 W/m 6,3 km/h (2 Bft) 95,74 %
22.10.2016 05:48 8,3 C 8,3 C 7,2 C 98 % 15 lf 1011,9 hPa 0,0 l/m 0 min 0 min 0 W/m 4,2 km/h (1 Bft) 100,00 %
22.10.2016 05:50 8,3 C 8,3 C 7,2 C 98 % 15 lf 1011,9 hPa 0,0 l/m 0 min 0 min 0 W/m 6,3 km/h (2 Bft) 97,56 %
22.10.2016 05:52 8,3 C 8,3 C 7,2 C 98 % 15 lf 1011,9 hPa 0,0 l/m 0 min 0 min 0 W/m 8,4 km/h (2 Bft) 91,49 %
22.10.2016 05:54 8,3 C 8,3 C 7,2 C 98 % 15 lf 1011,9 hPa 0,0 l/m 0 min 0 min 0 W/m 6,3 km/h (2 Bft) 100,00 %
22.10.2016 05:56 8,3 C 8,3 C 7,2 C 98 % 15 lf 1011,9 hPa 0,0 l/m 0 min 0 min 0 W/m 8,4 km/h (2 Bft) 100,00 %
22.10.2016 05:58 8,3 C 8,3 C 7,2 C 98 % 15 lf 1011,9 hPa 0,0 l/m 0 min 0 min 0 W/m 2,1 km/h (1 Bft) 95,74 %
22.10.2016 06:00 8,3 C 8,3 C 7,2 C 98 % 15 lf 1011,9 hPa 0,0 l/m 0 min 0 min 0 W/m 6,3 km/h (2 Bft) 98,00 %
22.10.2016 06:02 8,3 C 8,3 C 7,2 C 98 % 15 lf 1011,8 hPa 0,0 l/m 0 min 0 min 0 W/m 8,4 km/h (2 Bft) 97,83 %
22.10.2016 06:06 8,3 C 8,3 C 7,2 C 98 % 15 lf 1011,9 hPa 0,0 l/m 0 min 0 min 0 W/m 8,4 km/h (2 Bft) 98,94 %
22.10.2016 06:08 8,3 C 8,3 C 7,2 C 98 % 15 lf 1011,9 hPa 0,0 l/m 0 min 0 min 0 W/m 4,2 km/h (1 Bft) 100,00 %
22.10.2016 06:10 8,3 C 8,3 C 7,2 C 98 % 15 lf 1011,9 hPa 0,0 l/m 0 min 0 min 0 W/m 6,3 km/h (2 Bft) 100,00 %
22.10.2016 06:12 8,3 C 8,3 C 7,2 C 98 % 15 lf 1011,9 hPa 0,0 l/m 0 min 0 min 0 W/m 6,3 km/h (2 Bft) 100,00 %
22.10.2016 06:14 8,3 C 8,3 C 7,2 C 98 % 15 lf 1011,9 hPa 0,0 l/m 0 min 0 min 0 W/m 4,2 km/h (1 Bft) 100,00 %
22.10.2016 06:16 8,3 C 8,3 C 7,2 C 98 % 15 lf 1011,9 hPa 0,0 l/m 0 min 0 min 0 W/m 4,2 km/h (1 Bft) 97,87 %
22.10.2016 06:18 8,3 C 8,3 C 7,2 C 98 % 15 lf 1011,9 hPa 0,0 l/m 0 min 0 min 0 W/m 8,4 km/h (2 Bft) 100,00 %
22.10.2016 06:20 8,3 C 8,3 C 7,2 C 98 % 15 lf 1011,9 hPa 0,0 l/m 0 min 0 min 0 W/m 6,3 km/h (2 Bft) 95,74 %
22.10.2016 06:22 8,3 C 8,3 C 7,2 C 98 % 15 lf 1011,9 hPa 0,0 l/m 0 min 0 min 0 W/m 4,2 km/h (1 Bft) 100,00 %
22.10.2016 06:24 8,3 C 8,3 C 7,2 C 99 % 15 lf 1011,9 hPa 0,0 l/m 0 min 0 min 0 W/m 6,3 km/h (2 Bft) 100,00 %
22.10.2016 06:26 8,3 C 8,3 C 7,2 C 98 % 15 lf 1011,9 hPa 0,0 l/m 0 min 0 min 0 W/m 6,3 km/h (2 Bft) 95,74 %
22.10.2016 06:28 8,3 C 8,3 C 7,2 C 98 % 15 lf 1012,0 hPa 0,0 l/m 0 min 0 min 0 W/m 4,2 km/h (1 Bft) 97,87 %
22.10.2016 06:30 8,3 C 8,3 C 7,2 C 99 % 15 lf 1011,9 hPa 0,0 l/m 0 min 0 min 0 W/m 8,4 km/h (2 Bft) 100,00 %
22.10.2016 06:32 8,3 C 8,3 C 7,2 C 99 % 15 lf 1012,0 hPa 0,0 l/m 0 min 0 min 0 W/m 4,2 km/h (1 Bft) 95,74 %
22.10.2016 06:34 8,3 C 8,3 C 7,2 C 99 % 15 lf 1012,0 hPa 0,0 l/m 0 min 0 min 0 W/m 4,2 km/h (1 Bft) 97,87 %
22.10.2016 06:36 8,3 C 8,3 C 7,2 C 99 % 15 lf 1011,9 hPa 0,0 l/m 0 min 0 min 0 W/m 4,2 km/h (1 Bft) 97,87 %
22.10.2016 06:38 8,3 C 8,3 C 7,2 C 99 % 15 lf 1012,0 hPa 0,0 l/m 0 min 0 min 0 W/m 6,3 km/h (2 Bft) 97,83 %
22.10.2016 06:40 8,3 C 8,3 C 7,2 C 99 % 15 lf 1011,9 hPa 0,0 l/m 0 min 0 min 0 W/m 8,4 km/h (2 Bft) 95,74 %
22.10.2016 06:42 8,3 C 8,3 C 7,2 C 99 % 15 lf 1012,0 hPa 0,0 l/m 0 min 0 min 0 W/m 6,3 km/h (2 Bft) 93,62 %
22.10.2016 06:44 8,3 C 8,3 C 7,2 C 99 % 15 lf 1012,0 hPa 0,0 l/m 0 min 0 min 0 W/m 6,3 km/h (2 Bft) 91,49 %
22.10.2016 06:46 8,3 C 8,3 C 7,2 C 99 % 15 lf 1012,0 hPa 0,0 l/m 0 min 0 min 0 W/m 4,2 km/h (1 Bft) 93,62 %
22.10.2016 06:48 8,3 C 8,3 C 7,2 C 99 % 15 lf 1011,9 hPa 0,0 l/m 0 min 0 min 0 W/m 10,5 km/h (2 Bft) 91,30 %
22.10.2016 06:50 8,3 C 8,3 C 7,2 C 99 % 15 lf 1012,0 hPa 0,0 l/m 0 min 0 min 0 W/m 8,4 km/h (2 Bft) 93,62 %
22.10.2016 06:52 8,3 C 8,3 C 7,2 C 99 % 15 lf 1011,9 hPa 0,0 l/m 0 min 0 min 0 W/m 8,4 km/h (2 Bft) 91,49 %
22.10.2016 06:54 8,3 C 8,3 C 7,2 C 99 % 15 lf 1012,0 hPa 0,0 l/m 0 min 0 min 0 W/m 6,3 km/h (2 Bft) 89,36 %
22.10.2016 06:56 8,3 C 8,3 C 7,2 C 99 % 15 lf 1012,0 hPa 0,0 l/m 0 min 0 min 0 W/m 10,5 km/h (2 Bft) 89,36 %
22.10.2016 06:58 8,3 C 8,3 C 7,2 C 99 % 15 lf 1012,0 hPa 0,0 l/m 0 min 0 min 0 W/m 8,4 km/h (2 Bft) 93,62 %
22.10.2016 07:00 8,3 C 8,3 C 7,2 C 99 % 15 lf 1011,9 hPa 0,0 l/m 0 min 0 min 0 W/m 6,3 km/h (2 Bft) 91,84 %
22.10.2016 07:02 8,3 C 8,3 C 7,2 C 99 % 15 lf 1012,0 hPa 0,0 l/m 0 min 0 min 0 W/m 8,4 km/h (2 Bft) 91,49 %
22.10.2016 07:04 8,3 C 8,3 C 7,2 C 99 % 15 lf 1012,0 hPa 0,0 l/m 0 min 0 min 0 W/m 6,3 km/h (2 Bft) 93,62 %
22.10.2016 07:06 8,3 C 8,3 C 7,2 C 99 % 15 lf 1012,0 hPa 0,0 l/m 0 min 0 min 0 W/m 8,4 km/h (2 Bft) 93,62 %
22.10.2016 07:08 8,3 C 8,3 C 7,2 C 99 % 15 lf 1012,0 hPa 0,0 l/m 0 min 0 min 0 W/m 4,2 km/h (1 Bft) 93,62 %
22.10.2016 07:10 8,3 C 8,3 C 7,2 C 99 % 15 lf 1011,9 hPa 0,0 l/m 0 min 0 min 0 W/m 4,2 km/h (1 Bft) 93,48 %
22.10.2016 07:12 8,3 C 8,3 C 7,2 C 99 % 15 lf 1012,0 hPa 0,0 l/m 0 min 0 min 0 W/m 6,3 km/h (2 Bft) 95,74 %
22.10.2016 07:14 8,3 C 8,3 C 7,2 C 99 % 15 lf 1012,0 hPa 0,0 l/m 0 min 0 min 0 W/m 10,5 km/h (2 Bft) 95,74 %
22.10.2016 07:16 8,3 C 8,3 C 7,2 C 99 % 15 lf 1011,9 hPa 0,0 l/m 0 min 0 min 0 W/m 12,6 km/h (3 Bft) 93,62 %
22.10.2016 07:18 8,3 C 8,3 C 7,2 C 99 % 15 lf 1012,0 hPa 0,0 l/m 0 min 0 min 0 W/m 8,4 km/h (2 Bft) 93,62 %
22.10.2016 07:20 8,3 C 8,3 C 7,2 C 99 % 15 lf 1012,0 hPa 0,0 l/m 0 min 0 min 0 W/m 6,3 km/h (2 Bft) 95,74 %
22.10.2016 07:22 8,3 C 8,3 C 7,2 C 99 % 15 lf 1012,1 hPa 0,0 l/m 0 min 0 min 0 W/m 10,5 km/h (2 Bft) 93,48 %
22.10.2016 07:24 8,3 C 8,3 C 7,2 C 99 % 15 lf 1012,0 hPa 0,0 l/m 0 min 0 min 0 W/m 8,4 km/h (2 Bft) 97,87 %
22.10.2016 07:26 8,3 C 8,3 C 7,2 C 99 % 15 lf 1012,0 hPa 0,0 l/m 0 min 0 min 0 W/m 8,4 km/h (2 Bft) 97,87 %
22.10.2016 07:28 8,3 C 8,3 C 7,2 C 99 % 15 lf 1012,1 hPa 0,0 l/m 0 min 0 min 0 W/m 8,4 km/h (2 Bft) 97,87 %
22.10.2016 07:30 8,3 C 8,3 C 7,2 C 99 % 15 lf 1012,0 hPa 0,0 l/m 0 min 0 min 0 W/m 8,4 km/h (2 Bft) 97,87 %
22.10.2016 07:32 8,3 C 8,3 C 7,2 C 99 % 15 lf 1012,1 hPa 0,0 l/m 0 min 0 min 0 W/m 10,5 km/h (2 Bft) 97,87 %
22.10.2016 07:34 8,3 C 8,3 C 7,2 C 99 % 15 lf 1012,1 hPa 0,0 l/m 0 min 2 min 0 W/m 12,6 km/h (3 Bft) 93,48 %
22.10.2016 07:36 8,3 C 8,3 C 7,2 C 99 % 15 lf 1012,1 hPa 0,0 l/m 0 min 0 min 0 W/m 10,5 km/h (2 Bft) 95,74 %
22.10.2016 07:38 8,3 C 8,3 C 7,2 C 99 % 15 lf 1012,1 hPa 0,0 l/m 0 min 0 min 0 W/m 8,4 km/h (2 Bft) 97,83 %
22.10.2016 07:40 8,3 C 8,3 C 7,2 C 99 % 15 lf 1012,1 hPa 0,0 l/m 0 min 0 min 0 W/m 12,6 km/h (3 Bft) 97,87 %
22.10.2016 07:42 8,3 C 8,3 C 7,2 C 99 % 15 lf 1012,1 hPa 0,0 l/m 0 min 0 min 0 W/m 8,4 km/h (2 Bft) 97,87 %
22.10.2016 07:44 8,3 C 8,3 C 7,2 C 99 % 15 lf 1012,1 hPa 0,0 l/m 0 min 0 min 0 W/m 8,4 km/h (2 Bft) 95,74 %
22.10.2016 07:46 8,3 C 8,3 C 7,2 C 99 % 15 lf 1012,2 hPa 0,0 l/m 0 min 0 min 0 W/m 16,7 km/h (3 Bft) 95,65 %
22.10.2016 07:48 8,3 C 8,3 C 7,2 C 99 % 15 lf 1012,2 hPa 0,0 l/m 0 min 0 min 0 W/m 14,6 km/h (3 Bft) 97,87 %
22.10.2016 07:50 8,3 C 8,3 C 7,2 C 99 % 15 lf 1012,1 hPa 0,0 l/m 0 min 0 min 0 W/m 8,4 km/h (2 Bft) 100,00 %
22.10.2016 07:52 8,3 C 8,3 C 7,2 C 99 % 15 lf 1012,1 hPa 0,0 l/m 0 min 0 min 0 W/m 12,6 km/h (3 Bft) 95,74 %
22.10.2016 07:54 8,3 C 8,3 C 7,2 C 99 % 15 lf 1012,2 hPa 0,0 l/m 0 min 0 min 0 W/m 10,5 km/h (2 Bft) 97,87 %
22.10.2016 07:56 8,3 C 8,3 C 7,2 C 99 % 15 lf 1012,1 hPa 0,0 l/m 0 min 0 min 0 W/m 12,6 km/h (3 Bft) 95,74 %
22.10.2016 07:58 8,3 C 8,3 C 7,2 C 99 % 15 lf 1012,2 hPa 0,0 l/m 0 min 2 min 0 W/m 8,4 km/h (2 Bft) 93,48 %
22.10.2016 08:00 8,3 C 8,3 C 7,2 C 99 % 15 lf 1012,2 hPa 0,0 l/m 0 min 2 min 0 W/m 12,6 km/h (3 Bft) 97,87 %
22.10.2016 08:02 8,2 C 8,3 C 7,2 C 99 % 15 lf 1012,2 hPa 0,0 l/m 0 min 2 min 0 W/m 12,6 km/h (3 Bft) 93,18 %
22.10.2016 08:04 8,2 C 8,3 C 7,2 C 98 % 15 lf 1012,2 hPa 0,0 l/m 0 min 0 min 0 W/m 8,4 km/h (2 Bft) 97,87 %
22.10.2016 08:06 8,2 C 8,3 C 7,2 C 98 % 15 lf 1012,2 hPa 0,0 l/m 0 min 0 min 0 W/m 8,4 km/h (2 Bft) 97,87 %
22.10.2016 08:08 8,2 C 8,3 C 7,2 C 98 % 15 lf 1012,2 hPa 0,0 l/m 0 min 0 min 0 W/m 8,4 km/h (2 Bft) 97,87 %
22.10.2016 08:10 8,2 C 7,8 C 7,2 C 98 % 15 lf 1012,2 hPa 0,0 l/m 0 min 0 min 0 W/m 8,4 km/h (2 Bft) 91,30 %
22.10.2016 08:12 8,2 C 7,8 C 7,2 C 98 % 15 lf 1012,2 hPa 0,0 l/m 0 min 0 min 0 W/m 6,3 km/h (2 Bft) 95,74 %
22.10.2016 08:14 8,2 C 7,8 C 7,2 C 98 % 15 lf 1012,3 hPa 0,0 l/m 0 min 0 min 0 W/m 8,4 km/h (2 Bft) 97,87 %
22.10.2016 08:16 8,2 C 7,8 C 7,2 C 98 % 15 lf 1012,3 hPa 0,0 l/m 0 min 0 min 0 W/m 6,3 km/h (2 Bft) 95,74 %
22.10.2016 08:18 8,2 C 7,8 C 7,2 C 98 % 15 lf 1012,3 hPa 0,0 l/m 0 min 0 min 5 W/m 10,5 km/h (2 Bft) 95,74 %
22.10.2016 08:20 8,2 C 7,8 C 7,2 C 98 % 15 lf 1012,3 hPa 0,0 l/m 0 min 0 min 5 W/m 8,4 km/h (2 Bft) 97,87 %
22.10.2016 08:22 8,2 C 7,8 C 6,7 C 98 % 15 lf 1012,3 hPa 0,0 l/m 0 min 0 min 5 W/m 4,2 km/h (1 Bft) 97,83 %
22.10.2016 08:24 8,2 C 7,8 C 6,7 C 98 % 15 lf 1012,3 hPa 0,0 l/m 0 min 0 min 5 W/m 8,4 km/h (2 Bft) 97,87 %
22.10.2016 08:26 8,2 C 7,8 C 6,7 C 98 % 15 lf 1012,4 hPa 0,2 l/m 0 min 0 min 6 W/m 6,3 km/h (2 Bft) 89,36 %
22.10.2016 08:28 8,1 C 7,8 C 6,7 C 98 % 15 lf 1012,4 hPa 0,0 l/m 0 min 0 min 8 W/m 6,3 km/h (2 Bft) 95,74 %
22.10.2016 08:30 8,1 C 7,8 C 6,7 C 98 % 15 lf 1012,4 hPa 0,0 l/m 0 min 0 min 9 W/m 6,3 km/h (2 Bft) 95,74 %
22.10.2016 08:32 8,1 C 7,8 C 6,7 C 98 % 15 lf 1012,4 hPa 0,0 l/m 0 min 0 min 10 W/m 8,4 km/h (2 Bft) 93,62 %
22.10.2016 08:34 8,1 C 7,8 C 6,7 C 98 % 15 lf 1012,4 hPa 0,0 l/m 0 min 0 min 11 W/m 6,3 km/h (2 Bft) 91,30 %
22.10.2016 08:36 8,1 C 7,8 C 6,7 C 98 % 15 lf 1012,4 hPa 0,0 l/m 0 min 0 min 12 W/m 6,3 km/h (2 Bft) 93,62 %
22.10.2016 08:38 8,1 C 7,8 C 6,7 C 98 % 15 lf 1012,5 hPa 0,0 l/m 0 min 0 min 13 W/m 6,3 km/h (2 Bft) 93,62 %
22.10.2016 08:40 8,1 C 7,8 C 6,7 C 98 % 15 lf 1012,5 hPa 0,0 l/m 0 min 0 min 14 W/m 6,3 km/h (2 Bft) 93,62 %
22.10.2016 08:42 8,1 C 7,8 C 6,7 C 98 % 15 lf 1012,5 hPa 0,0 l/m 0 min 0 min 14 W/m 8,4 km/h (2 Bft) 97,87 %
22.10.2016 08:44 8,1 C 7,8 C 6,7 C 99 % 15 lf 1012,6 hPa 0,0 l/m 0 min 0 min 14 W/m 8,4 km/h (2 Bft) 95,65 %
22.10.2016 08:46 8,1 C 7,8 C 6,7 C 99 % 15 lf 1012,5 hPa 0,0 l/m 0 min 0 min 15 W/m 4,2 km/h (1 Bft) 97,87 %
22.10.2016 08:48 8,0 C 7,8 C 7,2 C 99 % 15 lf 1012,5 hPa 0,0 l/m 0 min 0 min 11 W/m 8,4 km/h (2 Bft) 97,87 %
22.10.2016 08:50 8,0 C 7,8 C 7,2 C 99 % 15 lf 1012,6 hPa 0,0 l/m 0 min 0 min 9 W/m 6,3 km/h (2 Bft) 95,74 %
22.10.2016 08:52 8,0 C 7,8 C 6,7 C 99 % 15 lf 1012,6 hPa 0,0 l/m 0 min 0 min 9 W/m 6,3 km/h (2 Bft) 95,74 %
22.10.2016 08:54 8,0 C 7,8 C 7,2 C 99 % 15 lf 1012,7 hPa 0,0 l/m 0 min 0 min 9 W/m 6,3 km/h (2 Bft) 97,87 %
22.10.2016 08:56 8,0 C 7,8 C 7,2 C 99 % 15 lf 1012,7 hPa 0,0 l/m 0 min 0 min 11 W/m 6,3 km/h (2 Bft) 95,65 %
22.10.2016 08:58 8,0 C 7,8 C 7,2 C 99 % 15 lf 1012,7 hPa 0,0 l/m 0 min 0 min 12 W/m 8,4 km/h (2 Bft) 91,49 %
22.10.2016 09:00 8,0 C 7,8 C 6,7 C 99 % 15 lf 1012,7 hPa 0,0 l/m 0 min 0 min 13 W/m 6,3 km/h (2 Bft) 92,00 %
22.10.2016 09:02 8,0 C 7,8 C 6,7 C 99 % 15 lf 1012,7 hPa 0,0 l/m 0 min 0 min 15 W/m 8,4 km/h (2 Bft) 95,74 %
22.10.2016 09:04 8,0 C 7,8 C 6,7 C 99 % 15 lf 1012,8 hPa 0,0 l/m 0 min 0 min 18 W/m 4,2 km/h (1 Bft) 100,00 %
22.10.2016 09:06 8,0 C 7,8 C 6,7 C 99 % 15 lf 1012,8 hPa 0,0 l/m 0 min 0 min 19 W/m 4,2 km/h (1 Bft) 97,87 %
22.10.2016 09:08 8,0 C 7,8 C 6,7 C 99 % 15 lf 1012,8 hPa 0,0 l/m 0 min 0 min 23 W/m 8,4 km/h (2 Bft) 97,83 %
22.10.2016 09:10 7,9 C 7,8 C 6,7 C 99 % 15 lf 1012,8 hPa 0,0 l/m 0 min 0 min 31 W/m 8,4 km/h (2 Bft) 95,74 %
22.10.2016 09:12 7,9 C 7,8 C 6,7 C 99 % 15 lf 1012,8 hPa 0,0 l/m 0 min 0 min 41 W/m 4,2 km/h (1 Bft) 100,00 %
22.10.2016 09:14 7,9 C 7,8 C 6,7 C 99 % 15 lf 1012,8 hPa 0,0 l/m 0 min 0 min 50 W/m 8,4 km/h (2 Bft) 100,00 %
22.10.2016 09:16 7,9 C 7,8 C 6,7 C 99 % 15 lf 1012,8 hPa 0,0 l/m 0 min 0 min 57 W/m 6,3 km/h (2 Bft) 95,74 %
22.10.2016 09:18 7,9 C 8,3 C 6,7 C 99 % 15 lf 1012,8 hPa 0,0 l/m 0 min 0 min 57 W/m 10,5 km/h (2 Bft) 97,87 %
22.10.2016 09:20 7,9 C 8,3 C 7,2 C 99 % 15 lf 1012,8 hPa 0,0 l/m 0 min 0 min 51 W/m 4,2 km/h (1 Bft) 97,83 %
22.10.2016 09:22 7,9 C 8,3 C 7,2 C 99 % 15 lf 1012,8 hPa 0,0 l/m 0 min 0 min 45 W/m 10,5 km/h (2 Bft) 97,87 %
22.10.2016 09:24 7,9 C 8,3 C 7,2 C 99 % 15 lf 1012,8 hPa 0,0 l/m 0 min 0 min 40 W/m 8,4 km/h (2 Bft) 97,87 %
22.10.2016 09:26 7,9 C 8,3 C 7,2 C 99 % 15 lf 1012,8 hPa 0,0 l/m 0 min 0 min 35 W/m 8,4 km/h (2 Bft) 95,74 %
22.10.2016 09:28 7,9 C 8,3 C 7,2 C 99 % 15 lf 1012,8 hPa 0,0 l/m 0 min 0 min 35 W/m 10,5 km/h (2 Bft) 97,87 %
22.10.2016 09:30 7,9 C 8,3 C 7,2 C 99 % 15 lf 1012,8 hPa 0,0 l/m 0 min 0 min 33 W/m 10,5 km/h (2 Bft) 97,87 %
22.10.2016 09:32 7,9 C 8,3 C 7,2 C 99 % 15 lf 1012,8 hPa 0,0 l/m 0 min 0 min 26 W/m 8,4 km/h (2 Bft) 95,65 %
22.10.2016 09:34 7,9 C 8,3 C 7,2 C 99 % 15 lf 1012,8 hPa 0,0 l/m 0 min 0 min 28 W/m 8,4 km/h (2 Bft) 95,74 %
22.10.2016 09:36 7,9 C 7,8 C 7,2 C 99 % 15 lf 1012,9 hPa 0,0 l/m 0 min 0 min 26 W/m 10,5 km/h (2 Bft) 97,87 %
22.10.2016 09:38 7,9 C 8,3 C 7,2 C 99 % 15 lf 1012,8 hPa 0,0 l/m 0 min 0 min 35 W/m 12,6 km/h (3 Bft) 95,74 %
22.10.2016 09:40 7,9 C 7,8 C 7,2 C 99 % 15 lf 1012,9 hPa 0,0 l/m 0 min 0 min 38 W/m 14,6 km/h (3 Bft) 95,74 %
22.10.2016 09:42 7,8 C 7,8 C 6,7 C 98 % 15 lf 1012,9 hPa 0,0 l/m 0 min 0 min 39 W/m 16,7 km/h (3 Bft) 97,83 %
22.10.2016 09:44 7,8 C 7,8 C 6,7 C 98 % 15 lf 1012,8 hPa 0,0 l/m 0 min 0 min 42 W/m 16,7 km/h (3 Bft) 95,74 %
22.10.2016 09:46 7,8 C 7,8 C 6,7 C 98 % 15 lf 1012,9 hPa 0,0 l/m 0 min 0 min 46 W/m 14,6 km/h (3 Bft) 97,87 %
22.10.2016 09:48 7,8 C 7,8 C 7,2 C 98 % 15 lf 1012,9 hPa 0,0 l/m 0 min 0 min 51 W/m 10,5 km/h (2 Bft) 97,87 %
22.10.2016 09:50 7,8 C 7,8 C 7,2 C 98 % 15 lf 1012,9 hPa 0,0 l/m 0 min 0 min 57 W/m 16,7 km/h (3 Bft) 95,74 %
22.10.2016 09:52 7,7 C 7,8 C 7,2 C 98 % 15 lf 1012,9 hPa 0,0 l/m 0 min 0 min 63 W/m 16,7 km/h (3 Bft) 97,87 %
22.10.2016 09:54 7,7 C 7,8 C 7,2 C 98 % 15 lf 1013,0 hPa 0,0 l/m 0 min 0 min 65 W/m 12,6 km/h (3 Bft) 95,65 %
22.10.2016 09:56 7,7 C 7,8 C 7,2 C 98 % 15 lf 1013,0 hPa 0,0 l/m 0 min 0 min 66 W/m 23,0 km/h (4 Bft) 93,62 %
22.10.2016 09:58 7,7 C 7,8 C 6,7 C 98 % 15 lf 1013,0 hPa 0,0 l/m 0 min 0 min 71 W/m 20,9 km/h (4 Bft) 97,87 %
22.10.2016 10:00 7,6 C 7,8 C 7,2 C 98 % 15 lf 1013,0 hPa 0,0 l/m 0 min 0 min 80 W/m 20,9 km/h (4 Bft) 98,00 %
22.10.2016 10:02 7,6 C 7,8 C 6,7 C 98 % 14 lf 1013,1 hPa 0,0 l/m 0 min 0 min 87 W/m 23,0 km/h (4 Bft) 97,87 %
22.10.2016 10:04 7,6 C 7,8 C 6,7 C 98 % 13 lf 1013,0 hPa 0,0 l/m 0 min 0 min 91 W/m 16,7 km/h (3 Bft) 100,00 %
22.10.2016 10:06 7,5 C 7,8 C 6,7 C 98 % 13 lf 1013,0 hPa 0,0 l/m 0 min 0 min 94 W/m 16,7 km/h (3 Bft) 100,00 %
22.10.2016 10:08 7,4 C 7,8 C 6,7 C 98 % 12 lf 1013,0 hPa 0,0 l/m 0 min 0 min 93 W/m 18,8 km/h (3 Bft) 100,00 %
22.10.2016 10:10 7,4 C 7,8 C 6,7 C 98 % 11 lf 1013,0 hPa 0,0 l/m 0 min 0 min 91 W/m 16,7 km/h (3 Bft) 100,00 %
22.10.2016 10:12 7,4 C 8,3 C 6,7 C 98 % 11 lf 1013,0 hPa 0,0 l/m 0 min 0 min 98 W/m 12,6 km/h (3 Bft) 97,87 %
22.10.2016 10:14 7,4 C 9,4 C 7,2 C 98 % 10 lf 1013,0 hPa 0,0 l/m 2 min 0 min 188 W/m 14,6 km/h (3 Bft) 100,00 %
22.10.2016 10:16 7,4 C 10,6 C 7,2 C 98 % 10 lf 1013,0 hPa 0,0 l/m 2 min 0 min 204 W/m 8,4 km/h (2 Bft) 97,87 %
22.10.2016 10:18 7,4 C 11,7 C 7,8 C 98 % 9 lf 1013,0 hPa 0,0 l/m 2 min 0 min 218 W/m 14,6 km/h (3 Bft) 100,00 %
22.10.2016 10:20 7,5 C 12,2 C 7,2 C 98 % 9 lf 1013,0 hPa 0,0 l/m 2 min 0 min 190 W/m 16,7 km/h (3 Bft) 100,00 %
22.10.2016 10:22 7,6 C 11,7 C 7,2 C 98 % 8 lf 1013,0 hPa 0,0 l/m 0 min 0 min 134 W/m 16,7 km/h (3 Bft) 97,87 %
22.10.2016 10:24 7,6 C 10,6 C 7,2 C 98 % 7 lf 1013,1 hPa 0,0 l/m 0 min 0 min 109 W/m 16,7 km/h (3 Bft) 97,87 %
22.10.2016 10:26 7,6 C 9,4 C 6,7 C 98 % 6 lf 1013,1 hPa 0,0 l/m 0 min 0 min 108 W/m 14,6 km/h (3 Bft) 97,87 %
22.10.2016 10:28 7,6 C 9,4 C 6,7 C 98 % 5 lf 1013,1 hPa 0,0 l/m 0 min 0 min 104 W/m 14,6 km/h (3 Bft) 97,87 %
22.10.2016 10:30 7,6 C 8,9 C 6,7 C 98 % 4 lf 1013,1 hPa 0,0 l/m 0 min 0 min 119 W/m 16,7 km/h (3 Bft) 97,83 %
22.10.2016 10:32 7,6 C 10,0 C 7,2 C 98 % 4 lf 1013,1 hPa 0,0 l/m 2 min 0 min 218 W/m 14,6 km/h (3 Bft) 95,74 %
22.10.2016 10:34 7,6 C 10,6 C 7,2 C 98 % 2 lf 1013,1 hPa 0,0 l/m 2 min 0 min 224 W/m 16,7 km/h (3 Bft) 97,87 %
22.10.2016 10:36 7,6 C 11,7 C 7,2 C 98 % 1 lf 1013,1 hPa 0,0 l/m 2 min 0 min 287 W/m 12,6 km/h (3 Bft) 97,87 %
22.10.2016 10:38 7,6 C 11,7 C 7,2 C 98 % 1 lf 1013,0 hPa 0,0 l/m 2 min 0 min 244 W/m 14,6 km/h (3 Bft) 95,74 %
22.10.2016 10:40 7,6 C 11,7 C 7,2 C 98 % 1 lf 1013,0 hPa 0,0 l/m 2 min 0 min 233 W/m 12,6 km/h (3 Bft) 97,83 %
22.10.2016 10:42 7,7 C 10,0 C 7,2 C 98 % 1 lf 1013,0 hPa 0,0 l/m 0 min 0 min 159 W/m 16,7 km/h (3 Bft) 95,74 %
22.10.2016 10:44 7,7 C 10,0 C 7,2 C 98 % 0 lf 1013,1 hPa 0,0 l/m 2 min 0 min 175 W/m 16,7 km/h (3 Bft) 95,74 %
22.10.2016 10:46 7,7 C 9,4 C 7,8 C 98 % 0 lf 1013,1 hPa 0,0 l/m 2 min 0 min 208 W/m 16,7 km/h (3 Bft) 91,49 %
22.10.2016 10:48 7,7 C 10,6 C 7,8 C 98 % 0 lf 1013,1 hPa 0,0 l/m 2 min 0 min 213 W/m 16,7 km/h (3 Bft) 95,74 %
22.10.2016 10:50 7,7 C 12,2 C 7,8 C 98 % 0 lf 1013,2 hPa 0,0 l/m 2 min 0 min 345 W/m 14,6 km/h (3 Bft) 93,62 %
22.10.2016 10:52 7,7 C 12,8 C 8,3 C 98 % 0 lf 1013,2 hPa 0,0 l/m 2 min 0 min 313 W/m 18,8 km/h (3 Bft) 86,96 %
22.10.2016 10:54 7,8 C 11,7 C 7,8 C 98 % 0 lf 1013,2 hPa 0,0 l/m 2 min 0 min 176 W/m 16,7 km/h (3 Bft) 91,49 %
22.10.2016 10:56 7,8 C 11,1 C 7,8 C 98 % 0 lf 1013,2 hPa 0,0 l/m 0 min 0 min 171 W/m 14,6 km/h (3 Bft) 91,49 %
22.10.2016 10:58 7,9 C 11,1 C 7,8 C 98 % 0 lf 1013,2 hPa 0,0 l/m 2 min 0 min 269 W/m 16,7 km/h (3 Bft) 95,74 %
22.10.2016 11:00 7,9 C 10,6 C 7,8 C 98 % 0 lf 1013,3 hPa 0,0 l/m 2 min 0 min 244 W/m 16,7 km/h (3 Bft) 89,36 %
22.10.2016 11:02 7,9 C 10,6 C 7,8 C 98 % 0 lf 1013,3 hPa 0,0 l/m 2 min 0 min 203 W/m 23,0 km/h (4 Bft) 95,74 %
22.10.2016 11:04 7,9 C 10,0 C 7,8 C 98 % 0 lf 1013,3 hPa 0,0 l/m 2 min 0 min 189 W/m 12,6 km/h (3 Bft) 93,48 %
22.10.2016 11:06 7,9 C 9,4 C 7,8 C 98 % 0 lf 1013,3 hPa 0,0 l/m 2 min 0 min 228 W/m 18,8 km/h (3 Bft) 95,74 %
22.10.2016 11:08 7,8 C 9,4 C 7,8 C 98 % 0 lf 1013,3 hPa 0,0 l/m 2 min 0 min 183 W/m 18,8 km/h (3 Bft) 95,74 %
22.10.2016 11:10 7,8 C 8,9 C 7,8 C 98 % 0 lf 1013,4 hPa 0,0 l/m 0 min 0 min 153 W/m 18,8 km/h (3 Bft) 91,49 %
22.10.2016 11:12 7,8 C 8,9 C 7,8 C 98 % 0 lf 1013,4 hPa 0,0 l/m 0 min 0 min 142 W/m 14,6 km/h (3 Bft) 95,74 %
22.10.2016 11:14 7,8 C 8,9 C 7,8 C 97 % 0 lf 1013,4 hPa 0,0 l/m 0 min 0 min 128 W/m 10,5 km/h (2 Bft) 95,74 %
22.10.2016 11:16 7,8 C 8,9 C 7,8 C 97 % 0 lf 1013,5 hPa 0,0 l/m 0 min 0 min 124 W/m 12,6 km/h (3 Bft) 91,30 %
22.10.2016 11:18 7,8 C 8,9 C 7,8 C 97 % 0 lf 1013,5 hPa 0,0 l/m 0 min 0 min 127 W/m 10,5 km/h (2 Bft) 95,74 %
22.10.2016 11:20 7,9 C 9,4 C 7,8 C 97 % 0 lf 1013,5 hPa 0,0 l/m 0 min 0 min 133 W/m 10,5 km/h (2 Bft) 93,62 %
22.10.2016 11:22 7,9 C 10,0 C 7,8 C 97 % 0 lf 1013,5 hPa 0,0 l/m 0 min 0 min 146 W/m 10,5 km/h (2 Bft) 93,62 %
22.10.2016 11:24 7,9 C 10,0 C 8,3 C 97 % 0 lf 1013,5 hPa 0,0 l/m 0 min 0 min 159 W/m 6,3 km/h (2 Bft) 95,74 %
22.10.2016 11:26 7,9 C 10,6 C 8,3 C 97 % 0 lf 1013,4 hPa 0,0 l/m 0 min 0 min 170 W/m 12,6 km/h (3 Bft) 91,49 %
22.10.2016 11:28 8,0 C 10,6 C 8,3 C 96 % 0 lf 1013,4 hPa 0,0 l/m 0 min 0 min 164 W/m 10,5 km/h (2 Bft) 93,48 %
22.10.2016 11:30 8,0 C 10,6 C 7,8 C 96 % 0 lf 1013,5 hPa 0,0 l/m 0 min 0 min 156 W/m 10,5 km/h (2 Bft) 93,62 %
22.10.2016 11:32 8,0 C 10,6 C 7,8 C 96 % 0 lf 1013,5 hPa 0,0 l/m 0 min 0 min 141 W/m 8,4 km/h (2 Bft) 95,74 %
22.10.2016 11:34 8,0 C 10,0 C 7,8 C 96 % 0 lf 1013,5 hPa 0,0 l/m 0 min 0 min 132 W/m 12,6 km/h (3 Bft) 93,62 %
22.10.2016 11:36 8,1 C 10,0 C 7,8 C 96 % 0 lf 1013,5 hPa 0,0 l/m 0 min 0 min 135 W/m 12,6 km/h (3 Bft) 93,62 %
22.10.2016 11:38 8,1 C 10,0 C 7,8 C 96 % 0 lf 1013,6 hPa 0,0 l/m 0 min 0 min 145 W/m 14,6 km/h (3 Bft) 93,48 %
22.10.2016 11:40 8,1 C 10,0 C 7,8 C 95 % 0 lf 1013,6 hPa 0,0 l/m 0 min 0 min 153 W/m 12,6 km/h (3 Bft) 95,74 %
22.10.2016 11:42 8,1 C 10,0 C 7,8 C 95 % 0 lf 1013,5 hPa 0,0 l/m 0 min 0 min 161 W/m 12,6 km/h (3 Bft) 97,87 %
22.10.2016 11:44 8,1 C 10,0 C 7,8 C 95 % 0 lf 1013,5 hPa 0,0 l/m 0 min 0 min 163 W/m 14,6 km/h (3 Bft) 100,00 %
22.10.2016 11:46 8,1 C 10,6 C 8,3 C 95 % 0 lf 1013,5 hPa 0,0 l/m 0 min 0 min 170 W/m 10,5 km/h (2 Bft) 97,87 %
22.10.2016 11:48 8,2 C 10,6 C 8,3 C 94 % 0 lf 1013,5 hPa 0,0 l/m 0 min 0 min 159 W/m 14,6 km/h (3 Bft) 93,62 %
22.10.2016 11:50 8,2 C 10,0 C 7,8 C 94 % 0 lf 1013,5 hPa 0,0 l/m 0 min 0 min 123 W/m 12,6 km/h (3 Bft) 100,00 %
22.10.2016 11:52 8,2 C 10,0 C 7,8 C 94 % 0 lf 1013,5 hPa 0,0 l/m 0 min 0 min 101 W/m 12,6 km/h (3 Bft) 93,48 %
22.10.2016 11:54 8,2 C 9,4 C 7,8 C 94 % 0 lf 1013,5 hPa 0,0 l/m 0 min 0 min 85 W/m 10,5 km/h (2 Bft) 97,87 %
22.10.2016 11:56 8,2 C 9,4 C 7,8 C 93 % 0 lf 1013,6 hPa 0,0 l/m 0 min 0 min 72 W/m 10,5 km/h (2 Bft) 97,87 %
22.10.2016 11:58 8,2 C 9,4 C 7,8 C 93 % 0 lf 1013,6 hPa 0,0 l/m 0 min 0 min 69 W/m 16,7 km/h (3 Bft) 95,74 %
22.10.2016 12:00 8,2 C 9,4 C 7,2 C 93 % 0 lf 1013,6 hPa 0,0 l/m 0 min 0 min 75 W/m 12,6 km/h (3 Bft) 97,73 %
22.10.2016 12:02 8,2 C 8,9 C 7,2 C 93 % 0 lf 1013,6 hPa 0,0 l/m 0 min 0 min 77 W/m 12,6 km/h (3 Bft) 97,37 %
22.10.2016 12:06 8,2 C 8,9 C 7,8 C 92 % 0 lf 1013,5 hPa 0,0 l/m 0 min 0 min 87 W/m 10,5 km/h (2 Bft) 94,79 %
22.10.2016 12:08 8,2 C 9,4 C 7,8 C 92 % 0 lf 1013,6 hPa 0,0 l/m 0 min 0 min 101 W/m 12,6 km/h (3 Bft) 95,74 %
22.10.2016 12:10 8,2 C 9,4 C 7,8 C 92 % 0 lf 1013,7 hPa 0,0 l/m 0 min 0 min 110 W/m 12,6 km/h (3 Bft) 95,74 %
22.10.2016 12:12 8,2 C 9,4 C 7,8 C 92 % 0 lf 1013,6 hPa 0,0 l/m 0 min 0 min 123 W/m 8,4 km/h (2 Bft) 97,87 %
22.10.2016 12:14 8,2 C 9,4 C 8,3 C 92 % 0 lf 1013,6 hPa 0,0 l/m 0 min 0 min 138 W/m 10,5 km/h (2 Bft) 95,74 %
22.10.2016 12:16 8,2 C 9,4 C 7,8 C 91 % 0 lf 1013,6 hPa 0,0 l/m 0 min 0 min 130 W/m 12,6 km/h (3 Bft) 97,83 %
22.10.2016 12:18 8,2 C 9,4 C 7,8 C 91 % 0 lf 1013,7 hPa 0,0 l/m 0 min 0 min 110 W/m 14,6 km/h (3 Bft) 97,87 %
22.10.2016 12:20 8,2 C 9,4 C 7,8 C 91 % 0 lf 1013,6 hPa 0,0 l/m 0 min 0 min 101 W/m 12,6 km/h (3 Bft) 95,74 %
22.10.2016 12:22 8,2 C 9,4 C 7,8 C 91 % 0 lf 1013,6 hPa 0,0 l/m 0 min 0 min 105 W/m 12,6 km/h (3 Bft) 93,62 %
22.10.2016 12:24 8,2 C 9,4 C 7,8 C 91 % 0 lf 1013,7 hPa 0,0 l/m 0 min 0 min 112 W/m 8,4 km/h (2 Bft) 93,62 %
22.10.2016 12:26 8,2 C 9,4 C 7,8 C 91 % 0 lf 1013,6 hPa 0,0 l/m 0 min 0 min 107 W/m 8,4 km/h (2 Bft) 93,62 %
22.10.2016 12:28 8,2 C 9,4 C 7,8 C 90 % 0 lf 1013,7 hPa 0,0 l/m 0 min 0 min 92 W/m 8,4 km/h (2 Bft) 95,65 %
22.10.2016 12:30 8,2 C 9,4 C 7,8 C 90 % 0 lf 1013,7 hPa 0,0 l/m 0 min 0 min 84 W/m 10,5 km/h (2 Bft) 93,62 %
22.10.2016 12:32 8,2 C 9,4 C 7,8 C 90 % 0 lf 1013,7 hPa 0,0 l/m 0 min 0 min 84 W/m 12,6 km/h (3 Bft) 93,62 %
22.10.2016 12:34 8,2 C 9,4 C 7,8 C 90 % 0 lf 1013,7 hPa 0,0 l/m 0 min 0 min 87 W/m 14,6 km/h (3 Bft) 97,87 %
22.10.2016 12:36 8,2 C 8,9 C 7,8 C 90 % 0 lf 1013,7 hPa 0,0 l/m 0 min 0 min 95 W/m 12,6 km/h (3 Bft) 97,87 %
22.10.2016 12:38 8,2 C 9,4 C 7,8 C 90 % 0 lf 1013,7 hPa 0,0 l/m 0 min 0 min 108 W/m 12,6 km/h (3 Bft) 95,74 %
22.10.2016 12:40 8,2 C 9,4 C 7,8 C 90 % 0 lf 1013,8 hPa 0,0 l/m 0 min 0 min 119 W/m 10,5 km/h (2 Bft) 93,48 %
22.10.2016 12:42 8,2 C 9,4 C 7,8 C 89 % 0 lf 1013,7 hPa 0,0 l/m 0 min 0 min 131 W/m 14,6 km/h (3 Bft) 100,00 %
22.10.2016 12:44 8,2 C 9,4 C 7,8 C 89 % 0 lf 1013,6 hPa 0,0 l/m 0 min 0 min 131 W/m 16,7 km/h (3 Bft) 93,62 %
22.10.2016 12:46 8,2 C 9,4 C 7,8 C 89 % 0 lf 1013,8 hPa 0,0 l/m 0 min 0 min 133 W/m 14,6 km/h (3 Bft) 93,62 %
22.10.2016 12:48 8,2 C 9,4 C 8,3 C 89 % 0 lf 1013,7 hPa 0,0 l/m 0 min 0 min 125 W/m 6,3 km/h (2 Bft) 97,87 %
22.10.2016 12:50 8,2 C 10,0 C 8,3 C 89 % 0 lf 1013,7 hPa 0,0 l/m 0 min 0 min 115 W/m 12,6 km/h (3 Bft) 97,87 %
22.10.2016 12:52 8,2 C 10,0 C 8,3 C 89 % 0 lf 1013,7 hPa 0,0 l/m 0 min 0 min 112 W/m 12,6 km/h (3 Bft) 97,83 %
22.10.2016 12:54 8,2 C 9,4 C 8,3 C 89 % 0 lf 1013,7 hPa 0,0 l/m 0 min 0 min 116 W/m 8,4 km/h (2 Bft) 100,00 %
22.10.2016 12:56 8,2 C 9,4 C 8,3 C 89 % 0 lf 1013,7 hPa 0,0 l/m 0 min 0 min 140 W/m 16,7 km/h (3 Bft) 100,00 %
22.10.2016 12:58 8,2 C 10,0 C 8,3 C 89 % 0 lf 1013,6 hPa 0,0 l/m 0 min 0 min 163 W/m 14,6 km/h (3 Bft) 100,00 %
22.10.2016 13:00 8,3 C 10,0 C 8,3 C 89 % 0 lf 1013,6 hPa 0,0 l/m 0 min 0 min 174 W/m 14,6 km/h (3 Bft) 97,87 %
22.10.2016 13:02 8,3 C 10,0 C 8,3 C 89 % 0 lf 1013,7 hPa 0,0 l/m 0 min 0 min 174 W/m 14,6 km/h (3 Bft) 95,74 %
22.10.2016 13:04 8,3 C 10,0 C 8,3 C 89 % 0 lf 1013,7 hPa 0,0 l/m 0 min 0 min 150 W/m 18,8 km/h (3 Bft) 100,00 %
22.10.2016 13:06 8,2 C 10,0 C 7,8 C 88 % 0 lf 1013,7 hPa 0,0 l/m 0 min 0 min 132 W/m 14,6 km/h (3 Bft) 100,00 %
22.10.2016 13:08 8,2 C 10,0 C 7,8 C 88 % 0 lf 1013,7 hPa 0,0 l/m 0 min 0 min 132 W/m 14,6 km/h (3 Bft) 97,87 %
22.10.2016 13:10 8,2 C 10,0 C 7,8 C 88 % 0 lf 1013,6 hPa 0,0 l/m 0 min 0 min 142 W/m 12,6 km/h (3 Bft) 97,87 %
22.10.2016 13:12 8,2 C 10,6 C 7,8 C 88 % 0 lf 1013,6 hPa 0,0 l/m 0 min 0 min 172 W/m 8,4 km/h (2 Bft) 100,00 %
22.10.2016 13:14 8,2 C 11,7 C 7,8 C 87 % 0 lf 1013,6 hPa 0,0 l/m 0 min 0 min 228 W/m 6,3 km/h (2 Bft) 100,00 %
22.10.2016 13:16 8,2 C 13,9 C 7,8 C 87 % 0 lf 1013,6 hPa 0,0 l/m 2 min 0 min 326 W/m 10,5 km/h (2 Bft) 97,87 %
22.10.2016 13:18 8,2 C 15,6 C 7,8 C 87 % 0 lf 1013,6 hPa 0,0 l/m 2 min 0 min 404 W/m 10,5 km/h (2 Bft) 100,00 %
22.10.2016 13:20 8,2 C 16,1 C 7,8 C 87 % 0 lf 1013,7 hPa 0,0 l/m 2 min 0 min 422 W/m 16,7 km/h (3 Bft) 97,87 %
22.10.2016 13:22 8,3 C 16,1 C 8,3 C 87 % 0 lf 1013,7 hPa 0,0 l/m 2 min 0 min 348 W/m 10,5 km/h (2 Bft) 100,00 %
22.10.2016 13:24 8,3 C 16,7 C 8,3 C 87 % 0 lf 1013,7 hPa 0,0 l/m 2 min 0 min 390 W/m 10,5 km/h (2 Bft) 100,00 %
22.10.2016 13:26 8,4 C 16,7 C 8,3 C 87 % 0 lf 1013,6 hPa 0,0 l/m 2 min 0 min 422 W/m 10,5 km/h (2 Bft) 100,00 %
22.10.2016 13:28 8,4 C 18,3 C 8,9 C 87 % 0 lf 1013,6 hPa 0,0 l/m 2 min 0 min 461 W/m 10,5 km/h (2 Bft) 100,00 %
22.10.2016 13:30 8,5 C 16,7 C 8,9 C 87 % 0 lf 1013,6 hPa 0,0 l/m 2 min 0 min 384 W/m 10,5 km/h (2 Bft) 100,00 %
22.10.2016 13:32 8,6 C 17,2 C 8,9 C 86 % 0 lf 1013,7 hPa 0,0 l/m 2 min 0 min 356 W/m 14,6 km/h (3 Bft) 97,87 %
22.10.2016 13:34 8,7 C 15,6 C 8,3 C 86 % 0 lf 1013,7 hPa 0,0 l/m 2 min 0 min 272 W/m 8,4 km/h (2 Bft) 97,87 %
22.10.2016 13:36 8,7 C 15,6 C 8,3 C 86 % 0 lf 1013,7 hPa 0,0 l/m 2 min 0 min 234 W/m 8,4 km/h (2 Bft) 100,00 %
22.10.2016 13:38 8,7 C 17,8 C 8,9 C 86 % 0 lf 1013,6 hPa 0,0 l/m 2 min 0 min 472 W/m 10,5 km/h (2 Bft) 100,00 %
22.10.2016 13:40 8,8 C 18,9 C 9,4 C 85 % 0 lf 1013,7 hPa 0,0 l/m 2 min 0 min 514 W/m 14,6 km/h (3 Bft) 100,00 %
22.10.2016 13:42 8,9 C 19,4 C 9,4 C 85 % 0 lf 1013,6 hPa 0,0 l/m 2 min 0 min 510 W/m 12,6 km/h (3 Bft) 100,00 %
22.10.2016 13:44 8,9 C 18,9 C 9,4 C 85 % 0 lf 1013,6 hPa 0,0 l/m 2 min 0 min 478 W/m 10,5 km/h (2 Bft) 100,00 %
22.10.2016 13:46 9,0 C 19,4 C 8,9 C 85 % 0 lf 1013,6 hPa 0,0 l/m 2 min 0 min 470 W/m 12,6 km/h (3 Bft) 100,00 %
22.10.2016 13:48 9,1 C 20,0 C 8,9 C 84 % 0 lf 1013,6 hPa 0,0 l/m 2 min 0 min 450 W/m 14,6 km/h (3 Bft) 95,74 %
22.10.2016 13:50 9,2 C 20,6 C 8,9 C 85 % 0 lf 1013,5 hPa 0,0 l/m 2 min 0 min 448 W/m 12,6 km/h (3 Bft) 95,65 %
22.10.2016 13:52 9,3 C 21,1 C 9,4 C 84 % 0 lf 1013,5 hPa 0,0 l/m 2 min 0 min 463 W/m 12,6 km/h (3 Bft) 97,87 %
22.10.2016 13:54 9,4 C 20,6 C 10,0 C 84 % 0 lf 1013,5 hPa 0,0 l/m 2 min 0 min 502 W/m 10,5 km/h (2 Bft) 95,74 %
22.10.2016 13:56 9,4 C 18,9 C 10,0 C 84 % 0 lf 1013,5 hPa 0,0 l/m 2 min 0 min 423 W/m 18,8 km/h (3 Bft) 95,74 %
22.10.2016 13:58 9,5 C 17,2 C 10,0 C 83 % 0 lf 1013,5 hPa 0,0 l/m 2 min 0 min 294 W/m 14,6 km/h (3 Bft) 97,87 %
22.10.2016 14:00 9,6 C 17,2 C 9,4 C 83 % 0 lf 1013,5 hPa 0,0 l/m 2 min 0 min 287 W/m 10,5 km/h (2 Bft) 97,87 %
22.10.2016 14:02 9,6 C 16,1 C 9,4 C 83 % 0 lf 1013,5 hPa 0,0 l/m 2 min 0 min 324 W/m 12,6 km/h (3 Bft) 97,83 %
22.10.2016 14:04 9,7 C 15,0 C 9,4 C 83 % 0 lf 1013,5 hPa 0,0 l/m 0 min 0 min 144 W/m 10,5 km/h (2 Bft) 97,87 %
22.10.2016 14:06 9,7 C 13,9 C 8,9 C 83 % 0 lf 1013,5 hPa 0,0 l/m 0 min 0 min 131 W/m 12,6 km/h (3 Bft) 95,74 %
22.10.2016 14:08 9,7 C 12,8 C 8,3 C 82 % 0 lf 1013,6 hPa 0,0 l/m 0 min 0 min 135 W/m 10,5 km/h (2 Bft) 97,87 %
22.10.2016 14:10 9,7 C 12,2 C 8,3 C 82 % 0 lf 1013,6 hPa 0,0 l/m 0 min 0 min 159 W/m 12,6 km/h (3 Bft) 95,74 %
22.10.2016 14:12 9,6 C 13,3 C 8,3 C 82 % 0 lf 1013,6 hPa 0,0 l/m 0 min 0 min 172 W/m 10,5 km/h (2 Bft) 95,74 %
22.10.2016 14:14 9,6 C 15,6 C 8,9 C 81 % 0 lf 1013,6 hPa 0,0 l/m 2 min 0 min 412 W/m 8,4 km/h (2 Bft) 95,65 %
22.10.2016 14:16 9,6 C 17,8 C 9,4 C 82 % 0 lf 1013,6 hPa 0,0 l/m 2 min 0 min 492 W/m 10,5 km/h (2 Bft) 95,74 %
22.10.2016 14:18 9,7 C 19,4 C 10,0 C 82 % 0 lf 1013,6 hPa 0,0 l/m 2 min 0 min 519 W/m 16,7 km/h (3 Bft) 93,62 %
22.10.2016 14:20 9,7 C 18,9 C 10,0 C 82 % 0 lf 1013,6 hPa 0,0 l/m 2 min 0 min 497 W/m 16,7 km/h (3 Bft) 93,62 %
22.10.2016 14:22 9,7 C 18,3 C 10,0 C 82 % 0 lf 1013,6 hPa 0,0 l/m 2 min 0 min 431 W/m 12,6 km/h (3 Bft) 93,62 %
22.10.2016 14:24 9,8 C 16,7 C 9,4 C 83 % 0 lf 1013,6 hPa 0,0 l/m 2 min 0 min 344 W/m 14,6 km/h (3 Bft) 86,96 %
22.10.2016 14:26 9,8 C 14,4 C 9,4 C 82 % 0 lf 1013,5 hPa 0,0 l/m 0 min 0 min 159 W/m 14,6 km/h (3 Bft) 95,74 %
22.10.2016 14:28 9,8 C 13,3 C 8,9 C 82 % 0 lf 1013,6 hPa 0,0 l/m 0 min 0 min 146 W/m 10,5 km/h (2 Bft) 93,62 %
22.10.2016 14:30 9,8 C 12,8 C 8,9 C 81 % 0 lf 1013,6 hPa 0,0 l/m 0 min 0 min 145 W/m 12,6 km/h (3 Bft) 95,74 %
22.10.2016 14:32 9,7 C 12,2 C 8,9 C 81 % 0 lf 1013,6 hPa 0,0 l/m 0 min 0 min 152 W/m 10,5 km/h (2 Bft) 95,74 %
22.10.2016 14:34 9,7 C 12,2 C 9,4 C 81 % 0 lf 1013,5 hPa 0,0 l/m 0 min 0 min 181 W/m 8,4 km/h (2 Bft) 95,74 %
22.10.2016 14:36 9,7 C 14,4 C 9,4 C 81 % 0 lf 1013,6 hPa 0,0 l/m 2 min 0 min 301 W/m 16,7 km/h (3 Bft) 93,62 %
22.10.2016 14:38 9,7 C 16,7 C 9,4 C 81 % 0 lf 1013,5 hPa 0,0 l/m 2 min 0 min 436 W/m 10,5 km/h (2 Bft) 95,65 %
22.10.2016 14:40 9,7 C 18,3 C 10,0 C 81 % 0 lf 1013,5 hPa 0,0 l/m 2 min 0 min 444 W/m 12,6 km/h (3 Bft) 93,62 %
22.10.2016 14:42 9,8 C 18,9 C 10,0 C 81 % 0 lf 1013,5 hPa 0,0 l/m 2 min 0 min 433 W/m 12,6 km/h (3 Bft) 95,74 %
22.10.2016 14:44 9,8 C 18,9 C 9,4 C 81 % 0 lf 1013,6 hPa 0,0 l/m 2 min 0 min 361 W/m 12,6 km/h (3 Bft) 91,49 %
22.10.2016 14:46 9,8 C 17,2 C 9,4 C 81 % 0 lf 1013,5 hPa 0,0 l/m 2 min 0 min 239 W/m 14,6 km/h (3 Bft) 89,36 %
22.10.2016 14:48 9,8 C 15,6 C 8,9 C 81 % 0 lf 1013,5 hPa 0,0 l/m 2 min 0 min 220 W/m 12,6 km/h (3 Bft) 93,62 %
22.10.2016 14:50 9,8 C 15,0 C 8,9 C 81 % 0 lf 1013,5 hPa 0,0 l/m 0 min 0 min 189 W/m 12,6 km/h (3 Bft) 93,48 %
22.10.2016 14:52 9,8 C 13,9 C 8,9 C 80 % 0 lf 1013,4 hPa 0,0 l/m 0 min 0 min 140 W/m 12,6 km/h (3 Bft) 93,62 %
22.10.2016 14:54 9,8 C 13,9 C 8,9 C 80 % 0 lf 1013,5 hPa 0,0 l/m 0 min 0 min 165 W/m 10,5 km/h (2 Bft) 95,74 %
22.10.2016 14:56 9,8 C 13,3 C 8,9 C 80 % 0 lf 1013,6 hPa 0,0 l/m 0 min 0 min 171 W/m 10,5 km/h (2 Bft) 91,49 %
22.10.2016 14:58 9,8 C 13,9 C 8,9 C 80 % 0 lf 1013,6 hPa 0,0 l/m 0 min 0 min 169 W/m 10,5 km/h (2 Bft) 93,62 %
22.10.2016 15:00 9,8 C 15,6 C 8,9 C 80 % 0 lf 1013,5 hPa 0,0 l/m 2 min 0 min 235 W/m 6,3 km/h (2 Bft) 93,48 %
22.10.2016 15:02 9,8 C 16,7 C 8,9 C 79 % 0 lf 1013,5 hPa 0,0 l/m 2 min 0 min 369 W/m 8,4 km/h (2 Bft) 93,62 %
22.10.2016 15:04 9,8 C 17,8 C 9,4 C 79 % 0 lf 1013,5 hPa 0,0 l/m 2 min 0 min 398 W/m 6,3 km/h (2 Bft) 95,74 %
22.10.2016 15:06 9,8 C 18,9 C 9,4 C 80 % 0 lf 1013,6 hPa 0,0 l/m 2 min 0 min 411 W/m 10,5 km/h (2 Bft) 95,74 %
22.10.2016 15:08 9,8 C 20,0 C 10,0 C 80 % 0 lf 1013,5 hPa 0,0 l/m 2 min 0 min 430 W/m 14,6 km/h (3 Bft) 95,74 %
22.10.2016 15:10 9,9 C 20,0 C 10,0 C 80 % 0 lf 1013,5 hPa 0,0 l/m 2 min 0 min 439 W/m 14,6 km/h (3 Bft) 93,62 %
22.10.2016 15:12 10,0 C 18,9 C 9,4 C 80 % 0 lf 1013,5 hPa 0,0 l/m 2 min 0 min 366 W/m 16,7 km/h (3 Bft) 95,65 %
22.10.2016 15:14 10,0 C 16,7 C 9,4 C 79 % 0 lf 1013,5 hPa 0,0 l/m 2 min 0 min 296 W/m 16,7 km/h (3 Bft) 93,62 %
22.10.2016 15:16 10,0 C 14,4 C 8,9 C 79 % 0 lf 1013,5 hPa 0,0 l/m 0 min 0 min 85 W/m 10,5 km/h (2 Bft) 93,62 %
22.10.2016 15:18 10,0 C 12,2 C 8,3 C 79 % 0 lf 1013,5 hPa 0,0 l/m 0 min 0 min 79 W/m 16,7 km/h (3 Bft) 89,36 %
22.10.2016 15:20 9,9 C 11,7 C 8,3 C 79 % 0 lf 1013,5 hPa 0,0 l/m 0 min 0 min 78 W/m 12,6 km/h (3 Bft) 95,74 %
22.10.2016 15:22 9,9 C 11,1 C 8,3 C 79 % 0 lf 1013,5 hPa 0,0 l/m 0 min 0 min 96 W/m 16,7 km/h (3 Bft) 95,74 %
22.10.2016 15:24 9,9 C 11,1 C 8,3 C 79 % 0 lf 1013,5 hPa 0,0 l/m 0 min 0 min 123 W/m 12,6 km/h (3 Bft) 97,83 %
22.10.2016 15:26 9,8 C 13,9 C 8,3 C 79 % 0 lf 1013,5 hPa 0,0 l/m 0 min 0 min 156 W/m 10,5 km/h (2 Bft) 93,62 %
22.10.2016 15:28 9,8 C 15,6 C 8,9 C 80 % 0 lf 1013,5 hPa 0,0 l/m 2 min 0 min 357 W/m 14,6 km/h (3 Bft) 97,87 %
22.10.2016 15:30 9,8 C 16,7 C 8,9 C 80 % 0 lf 1013,5 hPa 0,0 l/m 2 min 0 min 355 W/m 12,6 km/h (3 Bft) 97,87 %
22.10.2016 15:32 9,8 C 17,8 C 8,9 C 80 % 0 lf 1013,5 hPa 0,0 l/m 2 min 0 min 350 W/m 16,7 km/h (3 Bft) 95,74 %
22.10.2016 15:34 9,8 C 17,8 C 8,9 C 80 % 0 lf 1013,5 hPa 0,0 l/m 2 min 0 min 339 W/m 14,6 km/h (3 Bft) 95,74 %
22.10.2016 15:36 9,8 C 17,8 C 8,9 C 79 % 0 lf 1013,5 hPa 0,0 l/m 2 min 0 min 331 W/m 10,5 km/h (2 Bft) 97,83 %
22.10.2016 15:38 9,8 C 17,8 C 8,9 C 79 % 0 lf 1013,5 hPa 0,0 l/m 2 min 0 min 325 W/m 18,8 km/h (3 Bft) 97,87 %
22.10.2016 15:40 9,8 C 17,8 C 8,9 C 79 % 0 lf 1013,5 hPa 0,0 l/m 2 min 0 min 323 W/m 16,7 km/h (3 Bft) 97,87 %
22.10.2016 15:42 9,8 C 17,2 C 8,9 C 79 % 0 lf 1013,5 hPa 0,0 l/m 2 min 0 min 327 W/m 14,6 km/h (3 Bft) 97,87 %
22.10.2016 15:44 9,8 C 17,8 C 8,9 C 79 % 0 lf 1013,4 hPa 0,0 l/m 2 min 0 min 320 W/m 12,6 km/h (3 Bft) 95,74 %
22.10.2016 15:46 9,8 C 17,8 C 8,9 C 79 % 0 lf 1013,5 hPa 0,0 l/m 2 min 0 min 318 W/m 14,6 km/h (3 Bft) 97,83 %
22.10.2016 15:48 9,8 C 17,2 C 8,9 C 79 % 0 lf 1013,5 hPa 0,0 l/m 2 min 0 min 330 W/m 16,7 km/h (3 Bft) 100,00 %
22.10.2016 15:50 9,9 C 17,8 C 8,9 C 80 % 0 lf 1013,5 hPa 0,0 l/m 2 min 0 min 321 W/m 14,6 km/h (3 Bft) 100,00 %
22.10.2016 15:52 9,9 C 17,8 C 8,9 C 80 % 0 lf 1013,5 hPa 0,0 l/m 2 min 0 min 312 W/m 18,8 km/h (3 Bft) 100,00 %
22.10.2016 15:54 9,9 C 17,2 C 8,9 C 80 % 0 lf 1013,5 hPa 0,0 l/m 2 min 0 min 310 W/m 16,7 km/h (3 Bft) 97,87 %
22.10.2016 15:56 9,9 C 16,7 C 8,9 C 80 % 0 lf 1013,5 hPa 0,0 l/m 2 min 0 min 297 W/m 18,8 km/h (3 Bft) 100,00 %
22.10.2016 15:58 9,9 C 15,6 C 8,9 C 79 % 0 lf 1013,5 hPa 0,0 l/m 2 min 0 min 271 W/m 18,8 km/h (3 Bft) 100,00 %
22.10.2016 16:00 9,9 C 15,6 C 8,3 C 78 % 0 lf 1013,5 hPa 0,0 l/m 2 min 0 min 252 W/m 18,8 km/h (3 Bft) 100,00 %
22.10.2016 16:02 9,8 C 15,0 C 8,3 C 78 % 0 lf 1013,5 hPa 0,0 l/m 2 min 0 min 246 W/m 18,8 km/h (3 Bft) 100,00 %
22.10.2016 16:04 9,8 C 14,4 C 8,3 C 78 % 0 lf 1013,6 hPa 0,0 l/m 2 min 0 min 238 W/m 20,9 km/h (4 Bft) 95,74 %
22.10.2016 16:06 9,7 C 15,0 C 8,3 C 78 % 0 lf 1013,6 hPa 0,0 l/m 2 min 0 min 236 W/m 16,7 km/h (3 Bft) 97,87 %
22.10.2016 16:08 9,7 C 15,0 C 8,3 C 78 % 0 lf 1013,6 hPa 0,0 l/m 2 min 0 min 239 W/m 18,8 km/h (3 Bft) 100,00 %
22.10.2016 16:10 9,7 C 15,6 C 8,3 C 78 % 0 lf 1013,6 hPa 0,0 l/m 2 min 0 min 236 W/m 14,6 km/h (3 Bft) 97,83 %
22.10.2016 16:12 9,7 C 16,1 C 8,3 C 78 % 0 lf 1013,6 hPa 0,0 l/m 2 min 0 min 233 W/m 12,6 km/h (3 Bft) 97,87 %
22.10.2016 16:14 9,7 C 16,7 C 8,3 C 79 % 0 lf 1013,6 hPa 0,0 l/m 2 min 0 min 229 W/m 8,4 km/h (2 Bft) 97,87 %
22.10.2016 16:16 9,7 C 17,2 C 8,3 C 79 % 0 lf 1013,6 hPa 0,0 l/m 2 min 0 min 224 W/m 10,5 km/h (2 Bft) 100,00 %
22.10.2016 16:18 9,7 C 16,7 C 8,3 C 79 % 0 lf 1013,6 hPa 0,0 l/m 2 min 0 min 223 W/m 10,5 km/h (2 Bft) 100,00 %
22.10.2016 16:20 9,8 C 17,2 C 8,9 C 79 % 0 lf 1013,6 hPa 0,0 l/m 2 min 0 min 226 W/m 10,5 km/h (2 Bft) 100,00 %
22.10.2016 16:22 9,8 C 17,2 C 8,9 C 79 % 0 lf 1013,5 hPa 0,0 l/m 2 min 0 min 224 W/m 10,5 km/h (2 Bft) 100,00 %
22.10.2016 16:24 9,8 C 16,7 C 8,9 C 79 % 0 lf 1013,6 hPa 0,0 l/m 2 min 0 min 218 W/m 10,5 km/h (2 Bft) 97,87 %
22.10.2016 16:26 9,8 C 16,7 C 8,9 C 80 % 0 lf 1013,5 hPa 0,0 l/m 2 min 0 min 218 W/m 10,5 km/h (2 Bft) 100,00 %
22.10.2016 16:28 9,8 C 16,7 C 8,9 C 80 % 0 lf 1013,5 hPa 0,0 l/m 2 min 0 min 225 W/m 18,8 km/h (3 Bft) 95,74 %
22.10.2016 16:30 9,8 C 15,6 C 8,9 C 79 % 0 lf 1013,5 hPa 0,0 l/m 2 min 0 min 201 W/m 18,8 km/h (3 Bft) 100,00 %
22.10.2016 16:32 9,8 C 15,0 C 8,3 C 78 % 0 lf 1013,5 hPa 0,0 l/m 2 min 0 min 182 W/m 14,6 km/h (3 Bft) 95,74 %
22.10.2016 16:34 9,8 C 14,4 C 8,3 C 78 % 0 lf 1013,5 hPa 0,0 l/m 2 min 0 min 177 W/m 14,6 km/h (3 Bft) 95,65 %
22.10.2016 16:36 9,7 C 15,0 C 8,3 C 78 % 0 lf 1013,6 hPa 0,0 l/m 2 min 0 min 170 W/m 12,6 km/h (3 Bft) 97,87 %
22.10.2016 16:38 9,7 C 15,6 C 8,3 C 78 % 0 lf 1013,6 hPa 0,0 l/m 2 min 0 min 172 W/m 10,5 km/h (2 Bft) 95,74 %
22.10.2016 16:40 9,7 C 16,1 C 8,3 C 78 % 0 lf 1013,6 hPa 0,0 l/m 2 min 0 min 166 W/m 8,4 km/h (2 Bft) 97,87 %
22.10.2016 16:42 9,7 C 16,1 C 8,3 C 78 % 0 lf 1013,6 hPa 0,0 l/m 2 min 0 min 169 W/m 10,5 km/h (2 Bft) 95,74 %
22.10.2016 16:44 9,7 C 16,1 C 8,3 C 78 % 0 lf 1013,6 hPa 0,0 l/m 2 min 0 min 169 W/m 10,5 km/h (2 Bft) 97,87 %
22.10.2016 16:46 9,7 C 17,2 C 8,3 C 79 % 0 lf 1013,6 hPa 0,0 l/m 2 min 0 min 184 W/m 14,6 km/h (3 Bft) 97,83 %
22.10.2016 16:48 9,7 C 15,6 C 8,3 C 79 % 0 lf 1013,6 hPa 0,0 l/m 2 min 0 min 197 W/m 18,8 km/h (3 Bft) 97,87 %
22.10.2016 16:50 9,7 C 14,4 C 8,9 C 79 % 0 lf 1013,6 hPa 0,0 l/m 2 min 0 min 203 W/m 8,4 km/h (2 Bft) 95,74 %
22.10.2016 16:52 9,7 C 13,9 C 8,9 C 79 % 0 lf 1013,6 hPa 0,0 l/m 2 min 0 min 199 W/m 14,6 km/h (3 Bft) 95,74 %
22.10.2016 16:54 9,7 C 12,8 C 8,9 C 79 % 0 lf 1013,6 hPa 0,0 l/m 2 min 0 min 182 W/m 12,6 km/h (3 Bft) 91,49 %
22.10.2016 16:56 9,7 C 11,7 C 8,3 C 79 % 0 lf 1013,6 hPa 0,0 l/m 2 min 0 min 156 W/m 14,6 km/h (3 Bft) 95,74 %
22.10.2016 16:58 9,7 C 11,1 C 8,3 C 79 % 0 lf 1013,5 hPa 0,0 l/m 2 min 0 min 137 W/m 12,6 km/h (3 Bft) 91,30 %
22.10.2016 17:00 9,6 C 10,6 C 8,3 C 79 % 0 lf 1013,6 hPa 0,0 l/m 2 min 0 min 123 W/m 14,6 km/h (3 Bft) 93,62 %
22.10.2016 17:02 9,6 C 10,6 C 7,8 C 79 % 0 lf 1013,6 hPa 0,0 l/m 2 min 0 min 107 W/m 16,7 km/h (3 Bft) 95,74 %
22.10.2016 17:04 9,5 C 10,0 C 7,8 C 79 % 0 lf 1013,6 hPa 0,0 l/m 2 min 0 min 95 W/m 14,6 km/h (3 Bft) 93,62 %
22.10.2016 17:06 9,4 C 10,0 C 7,8 C 79 % 0 lf 1013,6 hPa 0,0 l/m 0 min 0 min 88 W/m 10,5 km/h (2 Bft) 95,74 %
22.10.2016 17:08 9,4 C 9,4 C 7,8 C 79 % 0 lf 1013,6 hPa 0,0 l/m 0 min 0 min 85 W/m 12,6 km/h (3 Bft) 95,65 %
22.10.2016 17:10 9,4 C 9,4 C 7,8 C 79 % 0 lf 1013,6 hPa 0,0 l/m 2 min 0 min 89 W/m 10,5 km/h (2 Bft) 95,74 %
22.10.2016 17:12 9,3 C 9,4 C 7,2 C 79 % 0 lf 1013,6 hPa 0,0 l/m 2 min 0 min 87 W/m 8,4 km/h (2 Bft) 93,62 %
22.10.2016 17:14 9,3 C 9,4 C 7,2 C 79 % 0 lf 1013,6 hPa 0,0 l/m 2 min 0 min 84 W/m 8,4 km/h (2 Bft) 93,62 %
22.10.2016 17:16 9,2 C 9,4 C 7,2 C 80 % 0 lf 1013,6 hPa 0,0 l/m 2 min 0 min 86 W/m 12,6 km/h (3 Bft) 97,87 %
22.10.2016 17:18 9,2 C 9,4 C 7,2 C 80 % 0 lf 1013,7 hPa 0,0 l/m 2 min 0 min 87 W/m 10,5 km/h (2 Bft) 97,87 %
22.10.2016 17:20 9,1 C 9,4 C 7,2 C 80 % 0 lf 1013,7 hPa 0,0 l/m 2 min 0 min 89 W/m 10,5 km/h (2 Bft) 97,83 %
22.10.2016 17:22 9,1 C 9,4 C 7,2 C 80 % 0 lf 1013,6 hPa 0,0 l/m 2 min 0 min 89 W/m 8,4 km/h (2 Bft) 95,74 %
22.10.2016 17:24 9,1 C 9,4 C 7,2 C 80 % 0 lf 1013,7 hPa 0,0 l/m 2 min 0 min 84 W/m 8,4 km/h (2 Bft) 95,74 %
22.10.2016 17:26 9,1 C 9,4 C 7,2 C 80 % 0 lf 1013,6 hPa 0,0 l/m 2 min 0 min 79 W/m 8,4 km/h (2 Bft) 95,74 %
22.10.2016 17:28 9,0 C 9,4 C 7,2 C 80 % 0 lf 1013,7 hPa 0,0 l/m 2 min 0 min 75 W/m 10,5 km/h (2 Bft) 91,49 %
22.10.2016 17:30 9,0 C 9,4 C 7,2 C 80 % 0 lf 1013,7 hPa 0,0 l/m 2 min 0 min 72 W/m 10,5 km/h (2 Bft) 95,74 %
22.10.2016 17:32 8,9 C 9,4 C 7,2 C 81 % 0 lf 1013,8 hPa 0,0 l/m 2 min 0 min 69 W/m 10,5 km/h (2 Bft) 97,83 %
22.10.2016 17:34 8,9 C 8,9 C 7,2 C 81 % 0 lf 1013,7 hPa 0,0 l/m 2 min 0 min 64 W/m 10,5 km/h (2 Bft) 97,87 %
22.10.2016 17:36 8,9 C 8,9 C 7,2 C 81 % 0 lf 1013,7 hPa 0,0 l/m 2 min 0 min 59 W/m 8,4 km/h (2 Bft) 93,62 %
22.10.2016 17:38 8,9 C 8,9 C 7,2 C 81 % 0 lf 1013,6 hPa 0,0 l/m 2 min 0 min 54 W/m 8,4 km/h (2 Bft) 89,36 %
22.10.2016 17:40 8,8 C 8,9 C 7,2 C 81 % 0 lf 1013,7 hPa 0,0 l/m 0 min 0 min 49 W/m 10,5 km/h (2 Bft) 95,74 %
22.10.2016 17:42 8,8 C 8,9 C 7,2 C 81 % 0 lf 1013,6 hPa 0,0 l/m 0 min 0 min 46 W/m 14,6 km/h (3 Bft) 97,87 %
22.10.2016 17:44 8,8 C 8,9 C 7,2 C 82 % 0 lf 1013,7 hPa 0,0 l/m 0 min 0 min 44 W/m 8,4 km/h (2 Bft) 95,65 %
22.10.2016 17:46 8,8 C 8,3 C 6,7 C 82 % 0 lf 1013,7 hPa 0,0 l/m 0 min 0 min 41 W/m 10,5 km/h (2 Bft) 89,36 %
22.10.2016 17:48 8,7 C 8,3 C 6,7 C 82 % 0 lf 1013,7 hPa 0,0 l/m 0 min 0 min 39 W/m 12,6 km/h (3 Bft) 97,87 %
22.10.2016 17:50 8,7 C 8,3 C 6,7 C 82 % 0 lf 1013,7 hPa 0,0 l/m 0 min 0 min 37 W/m 12,6 km/h (3 Bft) 97,87 %
22.10.2016 17:52 8,7 C 8,3 C 6,7 C 82 % 0 lf 1013,7 hPa 0,0 l/m 0 min 0 min 35 W/m 10,5 km/h (2 Bft) 97,87 %
22.10.2016 17:54 8,7 C 8,3 C 6,7 C 82 % 0 lf 1013,8 hPa 0,0 l/m 0 min 0 min 33 W/m 10,5 km/h (2 Bft) 93,62 %
22.10.2016 17:56 8,6 C 8,3 C 6,7 C 82 % 0 lf 1013,8 hPa 0,0 l/m 0 min 0 min 31 W/m 10,5 km/h (2 Bft) 97,83 %
22.10.2016 17:58 8,6 C 7,8 C 6,7 C 82 % 0 lf 1013,8 hPa 0,0 l/m 2 min 0 min 30 W/m 6,3 km/h (2 Bft) 97,87 %
22.10.2016 18:00 8,6 C 7,8 C 6,7 C 82 % 0 lf 1013,9 hPa 0,0 l/m 2 min 0 min 28 W/m 8,4 km/h (2 Bft) 97,87 %
22.10.2016 18:02 8,5 C 7,8 C 6,1 C 82 % 0 lf 1013,9 hPa 0,0 l/m 2 min 0 min 26 W/m 8,4 km/h (2 Bft) 97,87 %
22.10.2016 18:06 8,4 C 7,8 C 6,1 C 83 % 0 lf 1013,9 hPa 0,0 l/m 2 min 0 min 24 W/m 10,5 km/h (2 Bft) 96,81 %
22.10.2016 18:08 8,4 C 7,8 C 6,1 C 83 % 0 lf 1013,9 hPa 0,0 l/m 2 min 0 min 21 W/m 8,4 km/h (2 Bft) 97,83 %
22.10.2016 18:10 8,3 C 7,2 C 6,1 C 83 % 0 lf 1013,9 hPa 0,0 l/m 2 min 0 min 20 W/m 10,5 km/h (2 Bft) 100,00 %
22.10.2016 18:12 8,2 C 7,2 C 6,1 C 83 % 0 lf 1013,9 hPa 0,0 l/m 2 min 0 min 19 W/m 8,4 km/h (2 Bft) 100,00 %
22.10.2016 18:14 8,2 C 7,2 C 6,1 C 83 % 0 lf 1013,9 hPa 0,0 l/m 0 min 0 min 18 W/m 8,4 km/h (2 Bft) 100,00 %
22.10.2016 18:16 8,2 C 7,2 C 5,6 C 83 % 0 lf 1013,9 hPa 0,0 l/m 0 min 0 min 16 W/m 8,4 km/h (2 Bft) 97,87 %
22.10.2016 18:18 8,1 C 7,2 C 5,6 C 83 % 0 lf 1013,9 hPa 0,0 l/m 0 min 0 min 14 W/m 8,4 km/h (2 Bft) 95,65 %
22.10.2016 18:20 8,1 C 7,2 C 5,6 C 83 % 0 lf 1014,0 hPa 0,0 l/m 0 min 0 min 12 W/m 6,3 km/h (2 Bft) 97,87 %
22.10.2016 18:22 8,1 C 6,7 C 5,6 C 83 % 0 lf 1014,0 hPa 0,0 l/m 0 min 0 min 11 W/m 6,3 km/h (2 Bft) 93,62 %
22.10.2016 18:24 8,0 C 6,7 C 5,0 C 83 % 0 lf 1014,0 hPa 0,0 l/m 0 min 0 min 10 W/m 6,3 km/h (2 Bft) 95,74 %
22.10.2016 18:26 8,0 C 6,7 C 5,0 C 83 % 0 lf 1014,1 hPa 0,0 l/m 0 min 0 min 8 W/m 4,2 km/h (1 Bft) 97,87 %
22.10.2016 18:28 7,9 C 6,7 C 5,0 C 83 % 0 lf 1014,1 hPa 0,0 l/m 0 min 0 min 7 W/m 4,2 km/h (1 Bft) 97,87 %
22.10.2016 18:30 7,9 C 6,7 C 5,0 C 83 % 0 lf 1014,1 hPa 0,0 l/m 0 min 0 min 6 W/m 4,2 km/h (1 Bft) 95,65 %
22.10.2016 18:32 7,9 C 6,7 C 5,0 C 83 % 0 lf 1014,0 hPa 0,0 l/m 0 min 0 min 5 W/m 4,2 km/h (1 Bft) 97,87 %
22.10.2016 18:34 7,8 C 6,7 C 5,0 C 83 % 0 lf 1014,1 hPa 0,0 l/m 0 min 0 min 5 W/m 8,4 km/h (2 Bft) 93,62 %
22.10.2016 18:36 7,8 C 6,1 C 5,0 C 83 % 0 lf 1014,0 hPa 0,0 l/m 0 min 0 min 5 W/m 8,4 km/h (2 Bft) 97,87 %
22.10.2016 18:38 7,8 C 6,1 C 5,0 C 83 % 0 lf 1014,0 hPa 0,0 l/m 0 min 0 min 3 W/m 8,4 km/h (2 Bft) 91,49 %
22.10.2016 18:40 7,7 C 6,1 C 5,0 C 84 % 0 lf 1014,0 hPa 0,0 l/m 0 min 0 min 0 W/m 6,3 km/h (2 Bft) 95,74 %
22.10.2016 18:42 7,7 C 6,1 C 4,4 C 84 % 0 lf 1014,0 hPa 0,0 l/m 0 min 0 min 0 W/m 8,4 km/h (2 Bft) 97,87 %
22.10.2016 18:44 7,7 C 6,1 C 4,4 C 84 % 0 lf 1014,0 hPa 0,0 l/m 0 min 0 min 0 W/m 6,3 km/h (2 Bft) 95,65 %
22.10.2016 18:46 7,6 C 6,1 C 4,4 C 84 % 0 lf 1014,0 hPa 0,0 l/m 0 min 0 min 0 W/m 6,3 km/h (2 Bft) 97,87 %
22.10.2016 18:48 7,6 C 6,1 C 4,4 C 84 % 0 lf 1014,0 hPa 0,0 l/m 0 min 0 min 0 W/m 6,3 km/h (2 Bft) 97,87 %
22.10.2016 18:50 7,5 C 6,1 C 5,0 C 84 % 0 lf 1014,1 hPa 0,0 l/m 0 min 0 min 0 W/m 6,3 km/h (2 Bft) 95,74 %
22.10.2016 18:52 7,5 C 6,1 C 4,4 C 84 % 0 lf 1014,1 hPa 0,0 l/m 0 min 0 min 0 W/m 6,3 km/h (2 Bft) 97,87 %
22.10.2016 18:54 7,4 C 6,1 C 5,0 C 84 % 0 lf 1014,1 hPa 0,0 l/m 0 min 0 min 0 W/m 4,2 km/h (1 Bft) 95,65 %
22.10.2016 18:56 7,4 C 5,6 C 4,4 C 84 % 0 lf 1014,1 hPa 0,0 l/m 0 min 0 min 0 W/m 4,2 km/h (1 Bft) 97,87 %
22.10.2016 18:58 7,3 C 5,6 C 4,4 C 84 % 0 lf 1014,0 hPa 0,0 l/m 0 min 0 min 0 W/m 4,2 km/h (1 Bft) 95,74 %
22.10.2016 19:00 7,3 C 5,6 C 4,4 C 85 % 0 lf 1014,1 hPa 0,0 l/m 0 min 0 min 0 W/m 4,2 km/h (1 Bft) 97,87 %
22.10.2016 19:02 7,2 C 5,6 C 4,4 C 85 % 0 lf 1014,0 hPa 0,0 l/m 0 min 0 min 0 W/m 4,2 km/h (1 Bft) 100,00 %
22.10.2016 19:04 7,2 C 5,6 C 4,4 C 85 % 0 lf 1014,2 hPa 0,0 l/m 0 min 0 min 0 W/m 4,2 km/h (1 Bft) 97,87 %
22.10.2016 19:06 7,2 C 5,6 C 3,9 C 85 % 0 lf 1014,2 hPa 0,0 l/m 0 min 0 min 0 W/m 4,2 km/h (1 Bft) 97,83 %
22.10.2016 19:08 7,1 C 5,6 C 3,9 C 85 % 0 lf 1014,1 hPa 0,0 l/m 0 min 0 min 0 W/m 4,2 km/h (1 Bft) 100,00 %
22.10.2016 19:10 7,1 C 5,6 C 3,9 C 85 % 0 lf 1014,2 hPa 0,0 l/m 0 min 0 min 0 W/m 2,1 km/h (1 Bft) 95,74 %
22.10.2016 19:12 7,0 C 5,0 C 3,3 C 85 % 0 lf 1014,2 hPa 0,0 l/m 0 min 0 min 0 W/m 4,2 km/h (1 Bft) 100,00 %
22.10.2016 19:14 6,9 C 5,0 C 3,3 C 85 % 0 lf 1014,1 hPa 0,0 l/m 0 min 0 min 0 W/m 4,2 km/h (1 Bft) 97,87 %
22.10.2016 19:16 6,9 C 5,0 C 3,3 C 85 % 0 lf 1014,2 hPa 0,0 l/m 0 min 0 min 0 W/m 4,2 km/h (1 Bft) 97,87 %
22.10.2016 19:18 6,8 C 5,0 C 3,3 C 85 % 1 lf 1014,2 hPa 0,0 l/m 0 min 0 min 0 W/m 4,2 km/h (1 Bft) 100,00 %
22.10.2016 19:20 6,8 C 4,4 C 3,3 C 85 % 1 lf 1014,2 hPa 0,0 l/m 0 min 0 min 0 W/m 2,1 km/h (1 Bft) 97,87 %
22.10.2016 19:22 6,7 C 4,4 C 3,3 C 85 % 1 lf 1014,2 hPa 0,0 l/m 0 min 0 min 0 W/m 4,2 km/h (1 Bft) 95,74 %
22.10.2016 19:24 6,7 C 4,4 C 2,8 C 85 % 1 lf 1014,3 hPa 0,0 l/m 0 min 0 min 0 W/m 2,1 km/h (1 Bft) 97,87 %
22.10.2016 19:26 6,6 C 4,4 C 2,8 C 86 % 1 lf 1014,2 hPa 0,0 l/m 0 min 0 min 0 W/m 2,1 km/h (1 Bft) 93,62 %
22.10.2016 19:28 6,6 C 4,4 C 2,8 C 86 % 1 lf 1014,3 hPa 0,0 l/m 0 min 0 min 0 W/m 2,1 km/h (1 Bft) 97,83 %
22.10.2016 19:30 6,5 C 4,4 C 2,8 C 86 % 1 lf 1014,3 hPa 0,0 l/m 0 min 0 min 0 W/m 0,0 km/h (0 Bft) 95,74 %
22.10.2016 19:32 6,4 C 4,4 C 2,8 C 86 % 1 lf 1014,3 hPa 0,0 l/m 0 min 0 min 0 W/m 0,0 km/h (0 Bft) 95,74 %
22.10.2016 19:34 6,4 C 3,9 C 2,8 C 86 % 1 lf 1014,2 hPa 0,0 l/m 0 min 0 min 2 W/m 0,0 km/h (0 Bft) 89,36 %
22.10.2016 19:36 6,4 C 3,9 C 2,8 C 86 % 1 lf 1014,2 hPa 0,0 l/m 0 min 0 min 0 W/m 0,0 km/h (0 Bft) 93,62 %
22.10.2016 19:38 6,3 C 3,9 C 2,8 C 86 % 1 lf 1014,2 hPa 0,0 l/m 0 min 0 min 0 W/m 0,0 km/h (0 Bft) 95,74 %
22.10.2016 19:40 6,3 C 3,9 C 2,8 C 86 % 1 lf 1014,3 hPa 0,0 l/m 0 min 0 min 0 W/m 0,0 km/h (0 Bft) 93,62 %
22.10.2016 19:42 6,2 C 3,9 C 2,8 C 86 % 1 lf 1014,3 hPa 0,0 l/m 0 min 0 min 0 W/m 0,0 km/h (0 Bft) 93,48 %
22.10.2016 19:44 6,2 C 3,9 C 2,8 C 86 % 1 lf 1014,3 hPa 0,0 l/m 0 min 0 min 0 W/m 0,0 km/h (0 Bft) 95,74 %
22.10.2016 19:46 6,1 C 3,9 C 2,8 C 86 % 1 lf 1014,3 hPa 0,0 l/m 0 min 0 min 0 W/m 0,0 km/h (0 Bft) 95,74 %
22.10.2016 19:48 6,1 C 4,4 C 2,8 C 86 % 1 lf 1014,3 hPa 0,0 l/m 0 min 0 min 0 W/m 2,1 km/h (1 Bft) 95,74 %
22.10.2016 19:50 6,0 C 3,9 C 2,8 C 87 % 1 lf 1014,3 hPa 0,0 l/m 0 min 0 min 0 W/m 2,1 km/h (1 Bft) 93,62 %
22.10.2016 19:52 6,0 C 3,9 C 2,8 C 87 % 1 lf 1014,3 hPa 0,0 l/m 0 min 0 min 0 W/m 2,1 km/h (1 Bft) 95,65 %
22.10.2016 19:54 5,9 C 3,9 C 2,8 C 87 % 1 lf 1014,3 hPa 0,0 l/m 0 min 0 min 0 W/m 2,1 km/h (1 Bft) 91,49 %
22.10.2016 19:56 5,9 C 3,9 C 2,8 C 87 % 2 lf 1014,3 hPa 0,0 l/m 0 min 0 min 0 W/m 2,1 km/h (1 Bft) 95,74 %
22.10.2016 19:58 5,8 C 3,9 C 2,8 C 87 % 2 lf 1014,3 hPa 0,0 l/m 0 min 0 min 0 W/m 2,1 km/h (1 Bft) 95,74 %
22.10.2016 20:00 5,8 C 3,3 C 2,8 C 87 % 2 lf 1014,3 hPa 0,0 l/m 0 min 0 min 0 W/m 2,1 km/h (1 Bft) 95,74 %
22.10.2016 20:02 5,8 C 3,3 C 2,8 C 87 % 2 lf 1014,3 hPa 0,0 l/m 0 min 0 min 0 W/m 2,1 km/h (1 Bft) 93,62 %
22.10.2016 20:04 5,7 C 3,3 C 2,8 C 87 % 2 lf 1014,3 hPa 0,0 l/m 0 min 0 min 0 W/m 2,1 km/h (1 Bft) 97,83 %
22.10.2016 20:06 5,7 C 3,9 C 2,2 C 87 % 2 lf 1014,3 hPa 0,0 l/m 0 min 0 min 0 W/m 0,0 km/h (0 Bft) 97,87 %
22.10.2016 20:08 5,6 C 3,3 C 2,2 C 87 % 2 lf 1014,3 hPa 0,0 l/m 0 min 0 min 4 W/m 0,0 km/h (0 Bft) 95,74 %
22.10.2016 20:10 5,6 C 3,3 C 2,2 C 87 % 3 lf 1014,3 hPa 0,0 l/m 0 min 0 min 0 W/m 0,0 km/h (0 Bft) 95,74 %
22.10.2016 20:12 5,5 C 3,3 C 2,2 C 87 % 3 lf 1014,3 hPa 0,0 l/m 0 min 0 min 5 W/m 0,0 km/h (0 Bft) 93,62 %
22.10.2016 20:14 5,5 C 3,3 C 2,2 C 88 % 3 lf 1014,3 hPa 0,0 l/m 0 min 0 min 5 W/m 0,0 km/h (0 Bft) 97,87 %
22.10.2016 20:16 5,4 C 3,3 C 2,2 C 88 % 3 lf 1014,3 hPa 0,0 l/m 0 min 0 min 5 W/m 0,0 km/h (0 Bft) 95,65 %
22.10.2016 20:18 5,4 C 3,3 C 2,2 C 88 % 3 lf 1014,3 hPa 0,0 l/m 0 min 0 min 3 W/m 0,0 km/h (0 Bft) 95,74 %
22.10.2016 20:20 5,4 C 3,3 C 2,2 C 88 % 3 lf 1014,4 hPa 0,0 l/m 0 min 0 min 0 W/m 0,0 km/h (0 Bft) 91,49 %
22.10.2016 20:22 5,3 C 3,3 C 2,2 C 88 % 3 lf 1014,4 hPa 0,0 l/m 0 min 0 min 0 W/m 0,0 km/h (0 Bft) 100,00 %
22.10.2016 20:24 5,3 C 3,3 C 2,2 C 88 % 3 lf 1014,4 hPa 0,0 l/m 0 min 0 min 0 W/m 0,0 km/h (0 Bft) 100,00 %
22.10.2016 20:26 5,2 C 3,3 C 2,2 C 88 % 4 lf 1014,4 hPa 0,0 l/m 0 min 0 min 0 W/m 2,1 km/h (1 Bft) 97,87 %
22.10.2016 20:28 5,2 C 3,3 C 2,2 C 88 % 4 lf 1014,3 hPa 0,0 l/m 0 min 0 min 0 W/m 2,1 km/h (1 Bft) 100,00 %
22.10.2016 20:30 5,2 C 3,3 C 2,2 C 88 % 4 lf 1014,3 hPa 0,0 l/m 0 min 0 min 0 W/m 0,0 km/h (0 Bft) 97,87 %
22.10.2016 20:32 5,1 C 2,8 C 2,2 C 88 % 4 lf 1014,3 hPa 0,0 l/m 0 min 0 min 0 W/m 0,0 km/h (0 Bft) 97,87 %
22.10.2016 20:34 5,1 C 2,8 C 2,2 C 88 % 4 lf 1014,3 hPa 0,0 l/m 0 min 0 min 0 W/m 0,0 km/h (0 Bft) 97,87 %
22.10.2016 20:36 5,1 C 2,8 C 2,2 C 88 % 5 lf 1014,3 hPa 0,0 l/m 0 min 0 min 0 W/m 0,0 km/h (0 Bft) 95,74 %
22.10.2016 20:38 5,0 C 2,8 C 2,2 C 88 % 5 lf 1014,4 hPa 0,0 l/m 0 min 0 min 2 W/m 2,1 km/h (1 Bft) 100,00 %
22.10.2016 20:40 5,0 C 2,8 C 2,2 C 89 % 6 lf 1014,3 hPa 0,0 l/m 0 min 0 min 0 W/m 2,1 km/h (1 Bft) 100,00 %
22.10.2016 20:42 4,9 C 2,8 C 2,2 C 89 % 6 lf 1014,4 hPa 0,0 l/m 0 min 0 min 0 W/m 2,1 km/h (1 Bft) 97,87 %
22.10.2016 20:44 4,9 C 2,8 C 2,2 C 89 % 7 lf 1014,4 hPa 0,0 l/m 0 min 0 min 0 W/m 2,1 km/h (1 Bft) 95,74 %
22.10.2016 20:46 4,9 C 2,8 C 2,2 C 89 % 7 lf 1014,3 hPa 0,0 l/m 0 min 0 min 0 W/m 2,1 km/h (1 Bft) 93,62 %
22.10.2016 20:48 4,8 C 3,3 C 2,2 C 89 % 8 lf 1014,4 hPa 0,0 l/m 0 min 0 min 2 W/m 2,1 km/h (1 Bft) 95,74 %
22.10.2016 20:50 4,8 C 2,8 C 2,2 C 89 % 9 lf 1014,4 hPa 0,0 l/m 0 min 0 min 0 W/m 2,1 km/h (1 Bft) 97,87 %
22.10.2016 20:52 4,8 C 2,8 C 1,7 C 89 % 9 lf 1014,4 hPa 0,0 l/m 0 min 0 min 5 W/m 0,0 km/h (0 Bft) 95,65 %
22.10.2016 20:54 4,7 C 2,8 C 1,7 C 89 % 10 lf 1014,4 hPa 0,0 l/m 0 min 0 min 0 W/m 0,0 km/h (0 Bft) 95,74 %
22.10.2016 20:56 4,7 C 2,8 C 1,7 C 89 % 10 lf 1014,4 hPa 0,0 l/m 0 min 0 min 0 W/m 0,0 km/h (0 Bft) 93,62 %
22.10.2016 20:58 4,7 C 2,8 C 1,7 C 89 % 11 lf 1014,4 hPa 0,0 l/m 0 min 0 min 0 W/m 0,0 km/h (0 Bft) 93,62 %
22.10.2016 21:00 4,6 C 2,8 C 1,7 C 89 % 11 lf 1014,4 hPa 0,0 l/m 0 min 0 min 1 W/m 0,0 km/h (0 Bft) 95,74 %
22.10.2016 21:02 4,6 C 2,8 C 1,7 C 89 % 12 lf 1014,3 hPa 0,0 l/m 0 min 0 min 0 W/m 0,0 km/h (0 Bft) 95,65 %
22.10.2016 21:04 4,6 C 2,8 C 1,7 C 89 % 12 lf 1014,4 hPa 0,0 l/m 0 min 0 min 0 W/m 0,0 km/h (0 Bft) 93,62 %
22.10.2016 21:06 4,5 C 2,8 C 1,7 C 89 % 13 lf 1014,3 hPa 0,0 l/m 0 min 0 min 0 W/m 0,0 km/h (0 Bft) 91,49 %
22.10.2016 21:08 4,5 C 2,8 C 1,7 C 89 % 13 lf 1014,3 hPa 0,0 l/m 0 min 0 min 0 W/m 0,0 km/h (0 Bft) 95,74 %
22.10.2016 21:10 4,4 C 2,8 C 1,7 C 90 % 13 lf 1014,4 hPa 0,0 l/m 0 min 0 min 0 W/m 0,0 km/h (0 Bft) 93,62 %
22.10.2016 21:12 4,4 C 2,8 C 1,7 C 90 % 13 lf 1014,4 hPa 0,0 l/m 0 min 0 min 0 W/m 0,0 km/h (0 Bft) 91,49 %
22.10.2016 21:14 4,4 C 2,8 C 1,7 C 90 % 13 lf 1014,4 hPa 0,0 l/m 0 min 0 min 0 W/m 0,0 km/h (0 Bft) 93,48 %
22.10.2016 21:16 4,4 C 2,2 C 1,7 C 90 % 14 lf 1014,4 hPa 0,0 l/m 0 min 0 min 0 W/m 0,0 km/h (0 Bft) 95,74 %
22.10.2016 21:18 4,3 C 2,2 C 1,7 C 90 % 14 lf 1014,4 hPa 0,0 l/m 0 min 0 min 0 W/m 0,0 km/h (0 Bft) 89,36 %
22.10.2016 21:20 4,3 C 2,2 C 1,7 C 90 % 14 lf 1014,4 hPa 0,0 l/m 0 min 0 min 0 W/m 0,0 km/h (0 Bft) 89,36 %
22.10.2016 21:22 4,3 C 2,2 C 1,7 C 90 % 14 lf 1014,3 hPa 0,0 l/m 0 min 0 min 0 W/m 0,0 km/h (0 Bft) 91,49 %
22.10.2016 21:24 4,2 C 2,2 C 1,7 C 90 % 14 lf 1014,4 hPa 0,0 l/m 0 min 0 min 0 W/m 0,0 km/h (0 Bft) 93,62 %
22.10.2016 21:26 4,2 C 2,2 C 1,7 C 90 % 14 lf 1014,4 hPa 0,0 l/m 0 min 0 min 0 W/m 0,0 km/h (0 Bft) 91,30 %
22.10.2016 21:28 4,2 C 2,2 C 1,7 C 90 % 15 lf 1014,4 hPa 0,0 l/m 0 min 0 min 2 W/m 0,0 km/h (0 Bft) 87,23 %
22.10.2016 21:30 4,2 C 2,2 C 1,7 C 90 % 14 lf 1014,4 hPa 0,0 l/m 0 min 0 min 0 W/m 0,0 km/h (0 Bft) 91,49 %
22.10.2016 21:32 4,1 C 2,2 C 1,1 C 90 % 15 lf 1014,4 hPa 0,0 l/m 0 min 0 min 0 W/m 0,0 km/h (0 Bft) 95,74 %
22.10.2016 21:34 4,1 C 2,2 C 1,1 C 90 % 15 lf 1014,4 hPa 0,0 l/m 0 min 0 min 0 W/m 2,1 km/h (1 Bft) 95,74 %
22.10.2016 21:36 4,1 C 2,2 C 1,1 C 90 % 15 lf 1014,4 hPa 0,0 l/m 0 min 0 min 0 W/m 0,0 km/h (0 Bft) 95,74 %
22.10.2016 21:38 4,1 C 2,2 C 1,1 C 90 % 15 lf 1014,4 hPa 0,0 l/m 0 min 0 min 0 W/m 0,0 km/h (0 Bft) 93,48 %
22.10.2016 21:40 4,0 C 2,2 C 1,1 C 90 % 15 lf 1014,4 hPa 0,0 l/m 0 min 0 min 4 W/m 0,0 km/h (0 Bft) 91,49 %
22.10.2016 21:42 4,0 C 2,2 C 1,1 C 90 % 15 lf 1014,4 hPa 0,0 l/m 0 min 0 min 0 W/m 0,0 km/h (0 Bft) 97,87 %
22.10.2016 21:44 3,9 C 2,2 C 1,1 C 90 % 15 lf 1014,3 hPa 0,0 l/m 0 min 0 min 0 W/m 0,0 km/h (0 Bft) 97,87 %
22.10.2016 21:46 3,9 C 2,2 C 1,1 C 90 % 15 lf 1014,4 hPa 0,0 l/m 0 min 0 min 4 W/m 0,0 km/h (0 Bft) 95,74 %
22.10.2016 21:48 3,9 C 2,2 C 1,1 C 90 % 15 lf 1014,4 hPa 0,0 l/m 0 min 0 min 0 W/m 0,0 km/h (0 Bft) 97,87 %
22.10.2016 21:50 3,9 C 2,2 C 1,1 C 90 % 15 lf 1014,4 hPa 0,0 l/m 0 min 0 min 0 W/m 0,0 km/h (0 Bft) 97,83 %
22.10.2016 21:52 3,8 C 2,2 C 1,1 C 90 % 15 lf 1014,3 hPa 0,0 l/m 0 min 0 min 0 W/m 0,0 km/h (0 Bft) 95,74 %
22.10.2016 21:54 3,8 C 1,7 C 1,1 C 90 % 15 lf 1014,4 hPa 0,0 l/m 0 min 0 min 0 W/m 0,0 km/h (0 Bft) 95,74 %
22.10.2016 21:56 3,8 C 1,7 C 1,1 C 90 % 15 lf 1014,4 hPa 0,0 l/m 0 min 0 min 0 W/m 0,0 km/h (0 Bft) 97,87 %
22.10.2016 21:58 3,7 C 2,2 C 1,1 C 90 % 15 lf 1014,4 hPa 0,0 l/m 0 min 0 min 0 W/m 0,0 km/h (0 Bft) 95,74 %
22.10.2016 22:00 3,7 C 2,2 C 1,1 C 90 % 15 lf 1014,4 hPa 0,0 l/m 0 min 0 min 0 W/m 0,0 km/h (0 Bft) 97,83 %
22.10.2016 22:02 3,7 C 2,2 C 1,1 C 91 % 15 lf 1014,4 hPa 0,0 l/m 0 min 0 min 0 W/m 0,0 km/h (0 Bft) 95,74 %
22.10.2016 22:04 3,7 C 1,7 C 1,1 C 91 % 15 lf 1014,4 hPa 0,0 l/m 0 min 0 min 0 W/m 0,0 km/h (0 Bft) 95,74 %
22.10.2016 22:06 3,7 C 1,7 C 1,1 C 91 % 15 lf 1014,4 hPa 0,0 l/m 0 min 0 min 0 W/m 0,0 km/h (0 Bft) 97,87 %
22.10.2016 22:08 3,6 C 1,7 C 1,1 C 91 % 15 lf 1014,4 hPa 0,0 l/m 0 min 0 min 0 W/m 0,0 km/h (0 Bft) 97,87 %
22.10.2016 22:10 3,6 C 2,2 C 1,1 C 91 % 15 lf 1014,3 hPa 0,0 l/m 0 min 0 min 0 W/m 0,0 km/h (0 Bft) 91,49 %
22.10.2016 22:12 3,6 C 2,2 C 1,1 C 91 % 15 lf 1014,4 hPa 0,0 l/m 0 min 0 min 0 W/m 0,0 km/h (0 Bft) 97,83 %
22.10.2016 22:14 3,6 C 1,7 C 1,1 C 91 % 15 lf 1014,3 hPa 0,0 l/m 0 min 0 min 0 W/m 0,0 km/h (0 Bft) 97,87 %
22.10.2016 22:16 3,5 C 1,7 C 1,1 C 91 % 15 lf 1014,3 hPa 0,0 l/m 0 min 0 min 0 W/m 0,0 km/h (0 Bft) 97,87 %
22.10.2016 22:18 3,5 C 1,7 C 1,1 C 91 % 15 lf 1014,3 hPa 0,0 l/m 0 min 0 min 0 W/m 0,0 km/h (0 Bft) 95,74 %
22.10.2016 22:20 3,4 C 1,7 C 1,1 C 91 % 15 lf 1014,4 hPa 0,0 l/m 0 min 0 min 0 W/m 0,0 km/h (0 Bft) 97,87 %
22.10.2016 22:22 3,4 C 1,7 C 1,1 C 91 % 15 lf 1014,3 hPa 0,0 l/m 0 min 0 min 0 W/m 0,0 km/h (0 Bft) 100,00 %
22.10.2016 22:24 3,4 C 1,7 C 1,1 C 91 % 15 lf 1014,3 hPa 0,0 l/m 0 min 0 min 0 W/m 0,0 km/h (0 Bft) 97,83 %
22.10.2016 22:26 3,4 C 1,7 C 1,1 C 91 % 15 lf 1014,4 hPa 0,0 l/m 0 min 0 min 0 W/m 0,0 km/h (0 Bft) 97,87 %
22.10.2016 22:28 3,3 C 1,7 C 1,1 C 91 % 15 lf 1014,3 hPa 0,0 l/m 0 min 0 min 0 W/m 0,0 km/h (0 Bft) 100,00 %
22.10.2016 22:30 3,3 C 1,7 C 1,1 C 91 % 15 lf 1014,4 hPa 0,0 l/m 0 min 0 min 0 W/m 0,0 km/h (0 Bft) 100,00 %
22.10.2016 22:32 3,3 C 1,7 C 1,1 C 91 % 15 lf 1014,3 hPa 0,0 l/m 0 min 0 min 0 W/m 0,0 km/h (0 Bft) 97,87 %
22.10.2016 22:34 3,3 C 1,7 C 1,1 C 91 % 15 lf 1014,3 hPa 0,0 l/m 0 min 0 min 0 W/m 0,0 km/h (0 Bft) 100,00 %
22.10.2016 22:36 3,2 C 1,7 C 0,6 C 91 % 15 lf 1014,3 hPa 0,0 l/m 0 min 0 min 0 W/m 0,0 km/h (0 Bft) 97,83 %
22.10.2016 22:38 3,2 C 1,7 C 0,6 C 91 % 15 lf 1014,3 hPa 0,0 l/m 0 min 0 min 0 W/m 0,0 km/h (0 Bft) 100,00 %
22.10.2016 22:40 3,2 C 1,7 C 0,6 C 91 % 15 lf 1014,3 hPa 0,0 l/m 0 min 0 min 0 W/m 0,0 km/h (0 Bft) 100,00 %
22.10.2016 22:42 3,2 C 1,1 C 0,6 C 91 % 15 lf 1014,2 hPa 0,0 l/m 0 min 0 min 0 W/m 2,1 km/h (1 Bft) 97,87 %
22.10.2016 22:44 3,2 C 1,7 C 0,6 C 91 % 15 lf 1014,3 hPa 0,0 l/m 0 min 0 min 0 W/m 2,1 km/h (1 Bft) 97,87 %
22.10.2016 22:46 3,2 C 1,7 C 0,6 C 91 % 15 lf 1014,3 hPa 0,0 l/m 0 min 0 min 0 W/m 4,2 km/h (1 Bft) 95,74 %
22.10.2016 22:48 3,1 C 1,7 C 0,6 C 91 % 15 lf 1014,3 hPa 0,0 l/m 0 min 0 min 0 W/m 4,2 km/h (1 Bft) 95,65 %
22.10.2016 22:50 3,1 C 1,7 C 0,6 C 91 % 15 lf 1014,2 hPa 0,0 l/m 0 min 0 min 0 W/m 4,2 km/h (1 Bft) 97,87 %
22.10.2016 22:52 3,1 C 1,7 C 0,6 C 91 % 15 lf 1014,3 hPa 0,0 l/m 0 min 0 min 0 W/m 2,1 km/h (1 Bft) 97,87 %
22.10.2016 22:54 3,1 C 1,7 C 0,6 C 92 % 15 lf 1014,2 hPa 0,0 l/m 0 min 0 min 0 W/m 0,0 km/h (0 Bft) 97,87 %
22.10.2016 22:56 3,1 C 1,7 C 0,6 C 92 % 15 lf 1014,3 hPa 0,0 l/m 0 min 0 min 0 W/m 0,0 km/h (0 Bft) 93,62 %
22.10.2016 22:58 3,1 C 1,1 C 0,6 C 92 % 15 lf 1014,2 hPa 0,0 l/m 0 min 0 min 4 W/m 0,0 km/h (0 Bft) 95,65 %
22.10.2016 23:00 3,1 C 1,1 C 0,6 C 92 % 15 lf 1014,3 hPa 0,0 l/m 0 min 0 min 0 W/m 0,0 km/h (0 Bft) 93,62 %
22.10.2016 23:02 3,0 C 1,7 C 0,6 C 92 % 15 lf 1014,3 hPa 0,0 l/m 0 min 0 min 0 W/m 0,0 km/h (0 Bft) 93,62 %
22.10.2016 23:04 3,0 C 1,7 C 0,6 C 92 % 15 lf 1014,3 hPa 0,0 l/m 0 min 0 min 0 W/m 0,0 km/h (0 Bft) 90,00 %
22.10.2016 23:06 3,0 C 1,1 C 0,6 C 92 % 15 lf 1014,2 hPa 0,0 l/m 0 min 0 min 0 W/m 0,0 km/h (0 Bft) 91,49 %
22.10.2016 23:08 3,0 C 1,1 C 0,6 C 92 % 15 lf 1014,1 hPa 0,0 l/m 0 min 0 min 0 W/m 0,0 km/h (0 Bft) 95,74 %
22.10.2016 23:10 2,9 C 1,1 C 0,6 C 92 % 15 lf 1014,2 hPa 0,0 l/m 0 min 0 min 0 W/m 0,0 km/h (0 Bft) 89,13 %
22.10.2016 23:12 2,9 C 1,1 C 0,6 C 92 % 15 lf 1014,1 hPa 0,0 l/m 0 min 0 min 2 W/m 0,0 km/h (0 Bft) 93,62 %
22.10.2016 23:14 2,9 C 1,1 C 0,6 C 92 % 15 lf 1014,1 hPa 0,0 l/m 0 min 0 min 4 W/m 0,0 km/h (0 Bft) 93,62 %
22.10.2016 23:16 2,9 C 1,7 C 0,6 C 92 % 15 lf 1014,1 hPa 0,0 l/m 0 min 0 min 0 W/m 0,0 km/h (0 Bft) 97,87 %
22.10.2016 23:18 2,9 C 1,7 C 0,6 C 92 % 15 lf 1014,0 hPa 0,0 l/m 0 min 0 min 3 W/m 0,0 km/h (0 Bft) 89,36 %
22.10.2016 23:20 2,9 C 1,1 C 0,6 C 92 % 15 lf 1014,1 hPa 0,0 l/m 0 min 0 min 2 W/m 0,0 km/h (0 Bft) 91,49 %
22.10.2016 23:22 2,9 C 1,7 C 0,6 C 92 % 15 lf 1014,1 hPa 0,0 l/m 0 min 0 min 0 W/m 0,0 km/h (0 Bft) 93,48 %
22.10.2016 23:24 2,8 C 1,7 C 0,6 C 92 % 15 lf 1014,1 hPa 0,0 l/m 0 min 0 min 0 W/m 0,0 km/h (0 Bft) 91,49 %
22.10.2016 23:26 2,8 C 1,1 C 0,6 C 92 % 15 lf 1014,1 hPa 0,0 l/m 0 min 0 min 0 W/m 0,0 km/h (0 Bft) 91,49 %
22.10.2016 23:28 2,8 C 1,1 C 0,6 C 92 % 15 lf 1014,1 hPa 0,0 l/m 0 min 0 min 0 W/m 0,0 km/h (0 Bft) 93,62 %
22.10.2016 23:30 2,8 C 1,1 C 0,6 C 92 % 15 lf 1014,2 hPa 0,0 l/m 0 min 0 min 0 W/m 0,0 km/h (0 Bft) 95,74 %
22.10.2016 23:32 2,7 C 1,1 C 0,6 C 92 % 15 lf 1014,1 hPa 0,0 l/m 0 min 0 min 1 W/m 0,0 km/h (0 Bft) 91,49 %
22.10.2016 23:34 2,7 C 1,1 C 0,6 C 92 % 15 lf 1014,1 hPa 0,0 l/m 0 min 0 min 2 W/m 0,0 km/h (0 Bft) 97,83 %
22.10.2016 23:36 2,7 C 1,1 C 0,6 C 92 % 15 lf 1014,1 hPa 0,0 l/m 0 min 0 min 0 W/m 0,0 km/h (0 Bft) 97,87 %
22.10.2016 23:38 2,7 C 1,1 C 0,6 C 92 % 15 lf 1014,1 hPa 0,0 l/m 0 min 0 min 0 W/m 0,0 km/h (0 Bft) 93,62 %
22.10.2016 23:40 2,7 C 1,1 C 0,6 C 92 % 15 lf 1014,0 hPa 0,0 l/m 0 min 0 min 0 W/m 0,0 km/h (0 Bft) 97,87 %
22.10.2016 23:42 2,6 C 1,1 C 0,6 C 92 % 15 lf 1014,0 hPa 0,0 l/m 0 min 0 min 4 W/m 0,0 km/h (0 Bft) 93,62 %
22.10.2016 23:44 2,6 C 1,1 C 0,6 C 92 % 15 lf 1014,1 hPa 0,0 l/m 0 min 0 min 2 W/m 0,0 km/h (0 Bft) 95,65 %
22.10.2016 23:46 2,6 C 1,1 C 0,6 C 92 % 15 lf 1014,1 hPa 0,0 l/m 0 min 0 min 0 W/m 0,0 km/h (0 Bft) 97,87 %
22.10.2016 23:48 2,6 C 1,1 C 0,6 C 92 % 15 lf 1014,1 hPa 0,0 l/m 0 min 0 min 0 W/m 0,0 km/h (0 Bft) 97,87 %
22.10.2016 23:50 2,6 C 1,1 C 0,0 C 92 % 15 lf 1014,1 hPa 0,0 l/m 0 min 0 min 0 W/m 0,0 km/h (0 Bft) 95,74 %
22.10.2016 23:52 2,5 C 1,1 C 0,0 C 92 % 15 lf 1014,1 hPa 0,0 l/m 0 min 0 min 0 W/m 0,0 km/h (0 Bft) 95,74 %
22.10.2016 23:54 2,5 C 0,6 C 0,0 C 92 % 15 lf 1014,1 hPa 0,0 l/m 0 min 0 min 0 W/m 0,0 km/h (0 Bft) 97,87 %
22.10.2016 23:56 2,4 C 0,6 C 0,0 C 92 % 15 lf 1014,0 hPa 0,0 l/m 0 min 0 min 0 W/m 0,0 km/h (0 Bft) 97,83 %
22.10.2016 23:58 2,4 C 0,6 C 0,0 C 92 % 15 lf 1014,0 hPa 0,0 l/m 0 min 0 min 0 W/m 0,0 km/h (0 Bft) 97,87 %
_ Min-Zeit 23:56 23:54 23:50 16:00 10:44 05:10 - - - - 19:30 10:52
Minimum _ 2,4 C 0,6 C 0,0 C 78 % 0 lf 1011,8 hPa - - - - 0,0 km/h (0 Bft) 86,96 %
_ Max-Zeit 15:12 13:52 13:54 06:24 00:00 20:20 08:26 10:14 07:34 14:18 09:56 00:02
Maximum _ 10,0 C 21,1 C 10,0 C 99 % 15 lf 1014,4 hPa 0,2 l/m 2 min 2 min 519 W/m 23,0 km/h
N-NO (4 Bft)
100,00 %
Durchschnitt _ 7,6 C 8,4 C 6,2 C 92 % 9 lf 1013,2 hPa #0,2 l/m #4:34 h #8 min. 151 W/m 8,1 km/h (2 Bft) 96,26 %
© 2016 W. Hausmann